Observation data for Weinert on 04/22/2019      Previous  Date  Next       Current Mesonet Observations  Soil Data  Daily Summary Page  Observations in Plain Language
KWE1 220500Z 17017KT 23/15 A2985 RMK A01 T02260146  RH  060%=      5-min Rain = 0
KWE1 220501Z 17017KT 23/15 A2985 RMK A01 T02260146  RH  060%=      5-min Rain = 0
KWE1 220502Z 17019KT 23/15 A2985 RMK A01 T02270146  RH  060%=      5-min Rain = 0
KWE1 220503Z 17018KT 23/15 A2985 RMK A01 T02270146  RH  060%=      5-min Rain = 0
KWE1 220504Z 17017KT 23/15 A2985 RMK A01 T02270147  RH  060%=      5-min Rain = 0
KWE1 220505Z 17017KT 23/15 A2985 RMK A01 T02270147  RH  060%=      5-min Rain = 0
KWE1 220506Z 17017KT 23/15 A2985 RMK A01 T02260147  RH  061%=      5-min Rain = 0
KWE1 220507Z 17016KT 23/15 A2985 RMK A01 T02260147  RH  061%=      5-min Rain = 0
KWE1 220508Z 17015KT 23/15 A2985 RMK A01 T02260147  RH  061%=      5-min Rain = 0
KWE1 220509Z 17015KT 23/15 A2985 RMK A01 T02250147  RH  061%=      5-min Rain = 0
KWE1 220510Z 17016KT 23/15 A2985 RMK A01 T02250147  RH  061%=      5-min Rain = 0
KWE1 220511Z 17016KT 23/15 A2985 RMK A01 T02250148  RH  062%=      5-min Rain = 0
KWE1 220512Z 17017KT 23/15 A2985 RMK A01 T02250147  RH  062%=      5-min Rain = 0
KWE1 220513Z 17017KT 23/15 A2985 RMK A01 T02250147  RH  061%=      5-min Rain = 0
KWE1 220514Z 17017G23KT 23/15 A2985 RMK A01 T02250147  RH  061%=      5-min Rain = 0
KWE1 220515Z 17017KT 23/15 A2985 RMK A01 T02250147  RH  061%=      5-min Rain = 0
KWE1 220516Z 17017KT 23/15 A2985 RMK A01 T02250147  RH  061%=      5-min Rain = 0
KWE1 220517Z 17018KT 23/15 A2985 RMK A01 T02250148  RH  062%=      5-min Rain = 0
KWE1 220518Z 17017KT 23/15 A2985 RMK A01 T02250148  RH  062%=      5-min Rain = 0
KWE1 220519Z 17016KT 22/15 A2985 RMK A01 T02240148  RH  062%=      5-min Rain = 0
KWE1 220520Z 17017G22KT 22/15 A2985 RMK A01 T02240148  RH  062%=      5-min Rain = 0
KWE1 220521Z 17017KT 22/15 A2985 RMK A01 T02240148  RH  062%=      5-min Rain = 0
KWE1 220522Z 18016KT 22/15 A2985 RMK A01 T02240148  RH  062%=      5-min Rain = 0
KWE1 220523Z 18016KT 22/15 A2985 RMK A01 T02240148  RH  062%=      5-min Rain = 0
KWE1 220524Z 18016KT 22/15 A2986 RMK A01 T02240148  RH  062%=      5-min Rain = 0
KWE1 220525Z 18017KT 22/15 A2986 RMK A01 T02230148  RH  062%=      5-min Rain = 0
KWE1 220526Z 18016KT 22/15 A2986 RMK A01 T02230148  RH  062%=      5-min Rain = 0
KWE1 220527Z 18016KT 22/15 A2986 RMK A01 T02230148  RH  063%=      5-min Rain = 0
KWE1 220528Z 18015KT 22/15 A2986 RMK A01 T02220148  RH  063%=      5-min Rain = 0
KWE1 220529Z 18015KT 22/15 A2986 RMK A01 T02220148  RH  063%=      5-min Rain = 0
KWE1 220530Z 18016KT 22/15 A2986 RMK A01 T02220149  RH  063%=      5-min Rain = 0
KWE1 220531Z 18016KT 22/15 A2986 RMK A01 T02220148  RH  063%=      5-min Rain = 0
KWE1 220532Z 18015KT 22/15 A2986 RMK A01 T02220148  RH  063%=      5-min Rain = 0
KWE1 220533Z 18016KT 22/15 A2986 RMK A01 T02220149  RH  063%=      5-min Rain = 0
KWE1 220534Z 18015KT 22/15 A2986 RMK A01 T02210148  RH  063%=      5-min Rain = 0
KWE1 220535Z 18014KT 22/15 A2986 RMK A01 T02210149  RH  063%=      5-min Rain = 0
KWE1 220536Z 18014KT 22/15 A2986 RMK A01 T02200148  RH  064%=      5-min Rain = 0
KWE1 220537Z 18014KT 22/15 A2986 RMK A01 T02200149  RH  064%=      5-min Rain = 0
KWE1 220538Z 18016KT 22/15 A2986 RMK A01 T02190149  RH  064%=      5-min Rain = 0
KWE1 220539Z 18016KT 22/15 A2986 RMK A01 T02190149  RH  064%=      5-min Rain = 0
KWE1 220540Z 18016KT 22/15 A2986 RMK A01 T02200149  RH  064%=      5-min Rain = 0
KWE1 220541Z 18015KT 22/15 A2986 RMK A01 T02200149  RH  064%=      5-min Rain = 0
KWE1 220542Z 18016KT 22/15 A2986 RMK A01 T02200149  RH  064%=      5-min Rain = 0
KWE1 220543Z 18014KT 22/15 A2986 RMK A01 T02200149  RH  064%=      5-min Rain = 0
KWE1 220544Z 18014KT 22/15 A2986 RMK A01 T02190149  RH  064%=      5-min Rain = 0
KWE1 220545Z 18015KT 22/15 A2986 RMK A01 T02190149  RH  065%=      5-min Rain = 0
KWE1 220546Z 18014KT 22/15 A2986 RMK A01 T02180149  RH  065%=      5-min Rain = 0
KWE1 220547Z 18014KT 22/15 A2986 RMK A01 T02190149  RH  065%=      5-min Rain = 0
KWE1 220548Z 18015KT 22/15 A2986 RMK A01 T02190149  RH  065%=      5-min Rain = 0
KWE1 220549Z 18014KT 22/15 A2986 RMK A01 T02180149  RH  065%=      5-min Rain = 0
KWE1 220550Z 18014KT 22/15 A2986 RMK A01 T02180149  RH  065%=      5-min Rain = 0
KWE1 220551Z 18015KT 22/15 A2986 RMK A01 T02180149  RH  065%=      5-min Rain = 0
KWE1 220552Z 18013KT 22/15 A2986 RMK A01 T02170149  RH  065%=      5-min Rain = 0
KWE1 220553Z 18014KT 22/15 A2986 RMK A01 T02170149  RH  065%=      5-min Rain = 0
KWE1 220554Z 18014KT 22/15 A2986 RMK A01 T02170149  RH  065%=      5-min Rain = 0
KWE1 220555Z 18015KT 22/15 A2986 RMK A01 T02160149  RH  066%=      5-min Rain = 0
KWE1 220556Z 18014KT 22/15 A2987 RMK A01 T02160149  RH  066%=      5-min Rain = 0
KWE1 220557Z 18014KT 22/15 A2986 RMK A01 T02160149  RH  066%=      5-min Rain = 0
KWE1 220558Z 18014KT 22/15 A2987 RMK A01 T02160149  RH  066%=      5-min Rain = 0
KWE1 220559Z 18013KT 22/15 A2987 RMK A01 T02160149  RH  066%=      5-min Rain = 0
KWE1 220600Z 18014KT 22/15 A2987 RMK A01 T02160149  RH  066%=      5-min Rain = 0
KWE1 220601Z 18015KT 22/15 A2987 RMK A01 T02150149  RH  066%=      5-min Rain = 0
KWE1 220602Z 18013KT 22/15 A2987 RMK A01 T02160149  RH  066%=      5-min Rain = 0
KWE1 220603Z 18015KT 22/15 A2987 RMK A01 T02150149  RH  066%=      5-min Rain = 0
KWE1 220604Z 18013KT 22/15 A2987 RMK A01 T02160149  RH  066%=      5-min Rain = 0
KWE1 220605Z 18015KT 22/15 A2987 RMK A01 T02160149  RH  066%=      5-min Rain = 0
KWE1 220606Z 18014KT 22/15 A2987 RMK A01 T02160150  RH  066%=      5-min Rain = 0
KWE1 220607Z 18013KT 22/15 A2987 RMK A01 T02160149  RH  066%=      5-min Rain = 0
KWE1 220608Z 18011KT 22/15 A2987 RMK A01 T02150149  RH  066%=      5-min Rain = 0
KWE1 220609Z 18013KT 22/15 A2987 RMK A01 T02150149  RH  066%=      5-min Rain = 0
KWE1 220610Z 18014KT 21/15 A2987 RMK A01 T02140149  RH  066%=      5-min Rain = 0
KWE1 220611Z 18012KT 21/15 A2987 RMK A01 T02140149  RH  066%=      5-min Rain = 0
KWE1 220612Z 18013KT 21/15 A2987 RMK A01 T02140149  RH  066%=      5-min Rain = 0
KWE1 220613Z 18012KT 21/15 A2987 RMK A01 T02140149  RH  067%=      5-min Rain = 0
KWE1 220614Z 18012KT 21/15 A2987 RMK A01 T02130149  RH  067%=      5-min Rain = 0
KWE1 220615Z 18012KT 21/15 A2987 RMK A01 T02130149  RH  067%=      5-min Rain = 0
KWE1 220616Z 18013KT 21/15 A2987 RMK A01 T02130150  RH  067%=      5-min Rain = 0
KWE1 220617Z 18014KT 21/15 A2987 RMK A01 T02130150  RH  067%=      5-min Rain = 0
KWE1 220618Z 18014KT 21/15 A2987 RMK A01 T02130149  RH  067%=      5-min Rain = 0
KWE1 220619Z 18012KT 21/15 A2987 RMK A01 T02130149  RH  067%=      5-min Rain = 0
KWE1 220620Z 18012KT 21/15 A2987 RMK A01 T02130150  RH  067%=      5-min Rain = 0
KWE1 220621Z 18014KT 21/15 A2987 RMK A01 T02120149  RH  067%=      5-min Rain = 0
KWE1 220622Z 18011KT 21/15 A2987 RMK A01 T02130150  RH  067%=      5-min Rain = 0
KWE1 220623Z 18013KT 21/15 A2987 RMK A01 T02130150  RH  067%=      5-min Rain = 0
KWE1 220624Z 18013KT 21/15 A2987 RMK A01 T02120150  RH  067%=      5-min Rain = 0
KWE1 220625Z 18013KT 21/15 A2987 RMK A01 T02120150  RH  067%=      5-min Rain = 0
KWE1 220626Z 18013KT 21/15 A2987 RMK A01 T02130150  RH  067%=      5-min Rain = 0
KWE1 220627Z 18014KT 21/15 A2987 RMK A01 T02130150  RH  067%=      5-min Rain = 0
KWE1 220628Z 18014KT 21/15 A2987 RMK A01 T02140150  RH  067%=      5-min Rain = 0
KWE1 220629Z 17013KT 21/15 A2987 RMK A01 T02140150  RH  067%=      5-min Rain = 0
KWE1 220630Z 18013KT 21/15 A2987 RMK A01 T02140150  RH  067%=      5-min Rain = 0
KWE1 220631Z 18013KT 21/15 A2987 RMK A01 T02140150  RH  067%=      5-min Rain = 0
KWE1 220632Z 18013KT 21/15 A2987 RMK A01 T02140150  RH  067%=      5-min Rain = 0
KWE1 220633Z 18012KT 21/15 A2987 RMK A01 T02140150  RH  067%=      5-min Rain = 0
KWE1 220634Z 18012KT 21/15 A2987 RMK A01 T02130150  RH  067%=      5-min Rain = 0
KWE1 220635Z 18013KT 21/15 A2987 RMK A01 T02120150  RH  068%=      5-min Rain = 0
KWE1 220636Z 18012KT 21/15 A2987 RMK A01 T02120150  RH  068%=      5-min Rain = 0
KWE1 220637Z 18013G19KT 21/15 A2987 RMK A01 T02110150  RH  068%=      5-min Rain = 0
KWE1 220638Z 19013KT 21/15 A2987 RMK A01 T02120150  RH  068%=      5-min Rain = 0
KWE1 220639Z 18014KT 21/15 A2987 RMK A01 T02120150  RH  068%=      5-min Rain = 0
KWE1 220640Z 18014KT 21/15 A2987 RMK A01 T02120150  RH  068%=      5-min Rain = 0
KWE1 220641Z 18012KT 21/15 A2987 RMK A01 T02130150  RH  067%=      5-min Rain = 0
KWE1 220642Z 18013KT 21/15 A2987 RMK A01 T02130150  RH  067%=      5-min Rain = 0
KWE1 220643Z 18012KT 21/15 A2987 RMK A01 T02130150  RH  068%=      5-min Rain = 0
KWE1 220644Z 18011KT 21/15 A2987 RMK A01 T02110150  RH  068%=      5-min Rain = 0
KWE1 220645Z 18012KT 21/15 A2987 RMK A01 T02100150  RH  069%=      5-min Rain = 0
KWE1 220646Z 18013KT 21/15 A2987 RMK A01 T02100150  RH  069%=      5-min Rain = 0
KWE1 220647Z 18013KT 21/15 A2987 RMK A01 T02110150  RH  068%=      5-min Rain = 0
KWE1 220648Z 18013KT 21/15 A2987 RMK A01 T02110150  RH  068%=      5-min Rain = 0
KWE1 220649Z 18013KT 21/15 A2987 RMK A01 T02120150  RH  068%=      5-min Rain = 0
KWE1 220650Z 18013KT 21/15 A2987 RMK A01 T02120150  RH  068%=      5-min Rain = 0
KWE1 220651Z 18014KT 21/15 A2987 RMK A01 T02120151  RH  068%=      5-min Rain = 0
KWE1 220652Z 17013KT 21/15 A2987 RMK A01 T02110150  RH  068%=      5-min Rain = 0
KWE1 220653Z 18014KT 21/15 A2987 RMK A01 T02120151  RH  068%=      5-min Rain = 0
KWE1 220654Z 17014KT 21/15 A2987 RMK A01 T02120151  RH  068%=      5-min Rain = 0
KWE1 220655Z 17013KT 21/15 A2987 RMK A01 T02110150  RH  068%=      5-min Rain = 0
KWE1 220656Z 17013KT 21/15 A2987 RMK A01 T02110151  RH  068%=      5-min Rain = 0
KWE1 220657Z 18014KT 21/15 A2987 RMK A01 T02110151  RH  068%=      5-min Rain = 0
KWE1 220658Z 17012KT 21/15 A2987 RMK A01 T02110151  RH  068%=      5-min Rain = 0
KWE1 220659Z 17012KT 21/15 A2987 RMK A01 T02100151  RH  069%=      5-min Rain = 0
KWE1 220700Z 17012KT 21/15 A2987 RMK A01 T02090151  RH  069%=      5-min Rain = 0
KWE1 220701Z 17012KT 21/15 A2987 RMK A01 T02090151  RH  069%=      5-min Rain = 0
KWE1 220702Z 17011KT 21/15 A2987 RMK A01 T02080151  RH  070%=      5-min Rain = 0
KWE1 220703Z 18011KT 21/15 A2987 RMK A01 T02070151  RH  070%=      5-min Rain = 0
KWE1 220704Z 17011KT 21/15 A2987 RMK A01 T02070151  RH  070%=      5-min Rain = 0
KWE1 220705Z 17010KT 21/15 A2988 RMK A01 T02070151  RH  070%=      5-min Rain = 0
KWE1 220706Z 17010KT 21/15 A2987 RMK A01 T02060151  RH  070%=      5-min Rain = 0
KWE1 220707Z 17010KT 21/15 A2987 RMK A01 T02050151  RH  071%=      5-min Rain = 0
KWE1 220708Z 17010KT 21/15 A2988 RMK A01 T02050151  RH  071%=      5-min Rain = 0
KWE1 220709Z 18011KT 21/15 A2988 RMK A01 T02050151  RH  071%=      5-min Rain = 0
KWE1 220710Z 17010KT 21/15 A2988 RMK A01 T02050151  RH  071%=      5-min Rain = 0
KWE1 220711Z 17010KT 20/15 A2988 RMK A01 T02040151  RH  071%=      5-min Rain = 0
KWE1 220712Z 17010KT 20/15 A2988 RMK A01 T02040151  RH  071%=      5-min Rain = 0
KWE1 220713Z 17011KT 20/15 A2988 RMK A01 T02040151  RH  072%=      5-min Rain = 0
KWE1 220714Z 17011KT 20/15 A2988 RMK A01 T02040151  RH  072%=      5-min Rain = 0
KWE1 220715Z 17011KT 20/15 A2988 RMK A01 T02040151  RH  072%=      5-min Rain = 0
KWE1 220716Z 17011KT 20/15 A2988 RMK A01 T02040151  RH  072%=      5-min Rain = 0
KWE1 220717Z 18011KT 20/15 A2988 RMK A01 T02040151  RH  072%=      5-min Rain = 0
KWE1 220718Z 18010KT 20/15 A2988 RMK A01 T02040151  RH  072%=      5-min Rain = 0
KWE1 220719Z 17012KT 20/15 A2988 RMK A01 T02040151  RH  072%=      5-min Rain = 0
KWE1 220720Z 17012KT 20/15 A2988 RMK A01 T02040151  RH  072%=      5-min Rain = 0
KWE1 220721Z 18011KT 20/15 A2988 RMK A01 T02040151  RH  071%=      5-min Rain = 0
KWE1 220722Z 18010KT 20/15 A2988 RMK A01 T02040151  RH  071%=      5-min Rain = 0
KWE1 220723Z 18009KT 20/15 A2988 RMK A01 T02040151  RH  071%=      5-min Rain = 0
KWE1 220724Z 18010KT 20/15 A2988 RMK A01 T02030151  RH  072%=      5-min Rain = 0
KWE1 220725Z 18010KT 20/15 A2988 RMK A01 T02030151  RH  072%=      5-min Rain = 0
KWE1 220726Z 18011KT 20/15 A2988 RMK A01 T02040151  RH  072%=      5-min Rain = 0
KWE1 220727Z 18012KT 20/15 A2988 RMK A01 T02040151  RH  072%=      5-min Rain = 0
KWE1 220728Z 18012KT 20/15 A2988 RMK A01 T02040151  RH  071%=      5-min Rain = 0
KWE1 220729Z 18014KT 20/15 A2988 RMK A01 T02040151  RH  072%=      5-min Rain = 0
KWE1 220730Z 18016KT 21/15 A2988 RMK A01 T02050151  RH  071%=      5-min Rain = 0
KWE1 220731Z 18014KT 21/15 A2988 RMK A01 T02070152  RH  070%=      5-min Rain = 0
KWE1 220732Z 18012KT 21/15 A2988 RMK A01 T02070151  RH  070%=      5-min Rain = 0
KWE1 220733Z 18013KT 21/15 A2988 RMK A01 T02060151  RH  071%=      5-min Rain = 0
KWE1 220734Z 18013KT 21/15 A2988 RMK A01 T02060151  RH  071%=      5-min Rain = 0
KWE1 220735Z 18012KT 21/15 A2988 RMK A01 T02060151  RH  071%=      5-min Rain = 0
KWE1 220736Z 18012KT 21/15 A2988 RMK A01 T02060152  RH  071%=      5-min Rain = 0
KWE1 220737Z 19014KT 21/15 A2988 RMK A01 T02060152  RH  071%=      5-min Rain = 0
KWE1 220738Z 18013KT 21/15 A2988 RMK A01 T02060152  RH  071%=      5-min Rain = 0
KWE1 220739Z 19013KT 21/15 A2988 RMK A01 T02060152  RH  071%=      5-min Rain = 0
KWE1 220740Z 18012KT 21/15 A2988 RMK A01 T02050152  RH  071%=      5-min Rain = 0
KWE1 220741Z 18014KT 21/15 A2988 RMK A01 T02050152  RH  071%=      5-min Rain = 0
KWE1 220742Z 18014KT 21/15 A2988 RMK A01 T02050152  RH  071%=      5-min Rain = 0
KWE1 220743Z 18014KT 21/15 A2988 RMK A01 T02050152  RH  071%=      5-min Rain = 0
KWE1 220744Z 18013KT 21/15 A2988 RMK A01 T02050152  RH  072%=      5-min Rain = 0
KWE1 220745Z 18013KT 21/15 A2988 RMK A01 T02050152  RH  072%=      5-min Rain = 0
KWE1 220746Z 18011KT 20/15 A2988 RMK A01 T02040152  RH  072%=      5-min Rain = 0
KWE1 220747Z 18011KT 20/15 A2988 RMK A01 T02030152  RH  072%=      5-min Rain = 0
KWE1 220748Z 18012KT 20/15 A2988 RMK A01 T02020152  RH  073%=      5-min Rain = 0
KWE1 220749Z 18013KT 20/15 A2988 RMK A01 T02020152  RH  073%=      5-min Rain = 0
KWE1 220750Z 18013KT 20/15 A2988 RMK A01 T02030152  RH  072%=      5-min Rain = 0
KWE1 220751Z 18012KT 20/15 A2988 RMK A01 T02030152  RH  072%=      5-min Rain = 0
KWE1 220752Z 18011KT 20/15 A2988 RMK A01 T02020152  RH  073%=      5-min Rain = 0
KWE1 220753Z 19013KT 20/15 A2988 RMK A01 T02020152  RH  073%=      5-min Rain = 0
KWE1 220754Z 18012KT 20/15 A2988 RMK A01 T02030152  RH  072%=      5-min Rain = 0
KWE1 220755Z 18011G16KT 20/15 A2988 RMK A01 T02040152  RH  072%=      5-min Rain = 0
KWE1 220756Z 18013KT 20/15 A2988 RMK A01 T02030152  RH  073%=      5-min Rain = 0
KWE1 220757Z 18015KT 20/15 A2988 RMK A01 T02040153  RH  072%=      5-min Rain = 0
KWE1 220758Z 18015KT 20/15 A2988 RMK A01 T02040153  RH  072%=      5-min Rain = 0
KWE1 220759Z 18013KT 21/15 A2988 RMK A01 T02050153  RH  072%=      5-min Rain = 0
KWE1 220800Z 18014KT 21/15 A2988 RMK A01 T02060153  RH  072%=      5-min Rain = 0
KWE1 220801Z 18014KT 21/15 A2988 RMK A01 T02050153  RH  072%=      5-min Rain = 0
KWE1 220802Z 19013KT 21/15 A2988 RMK A01 T02050153  RH  072%=      5-min Rain = 0
KWE1 220803Z 18012KT 21/15 A2988 RMK A01 T02050153  RH  072%=      5-min Rain = 0
KWE1 220804Z 18014KT 20/15 A2988 RMK A01 T02040153  RH  072%=      5-min Rain = 0
KWE1 220805Z 18012G17KT 20/15 A2988 RMK A01 T02040153  RH  072%=      5-min Rain = 0
KWE1 220806Z 18013KT 20/15 A2988 RMK A01 T02030153  RH  073%=      5-min Rain = 0
KWE1 220807Z 18015KT 20/15 A2987 RMK A01 T02030153  RH  073%=      5-min Rain = 0
KWE1 220808Z 18013KT 20/15 A2988 RMK A01 T02040153  RH  073%=      5-min Rain = 0
KWE1 220809Z 18013KT 20/15 A2988 RMK A01 T02040153  RH  073%=      5-min Rain = 0
KWE1 220810Z 18014KT 20/15 A2988 RMK A01 T02030153  RH  073%=      5-min Rain = 0
KWE1 220811Z 18014G19KT 20/15 A2988 RMK A01 T02030153  RH  073%=      5-min Rain = 0
KWE1 220812Z 18015KT 20/15 A2987 RMK A01 T02020153  RH  073%=      5-min Rain = 0
KWE1 220813Z 18014KT 20/15 A2988 RMK A01 T02020153  RH  073%=      5-min Rain = 0
KWE1 220814Z 19014KT 20/15 A2987 RMK A01 T02020153  RH  073%=      5-min Rain = 0
KWE1 220815Z 18016KT 20/15 A2987 RMK A01 T02030153  RH  073%=      5-min Rain = 0
KWE1 220816Z 18013KT 20/15 A2987 RMK A01 T02030153  RH  073%=      5-min Rain = 0
KWE1 220817Z 18013KT 20/15 A2987 RMK A01 T02030153  RH  073%=      5-min Rain = 0
KWE1 220818Z 18016KT 20/15 A2987 RMK A01 T02010153  RH  074%=      5-min Rain = 0
KWE1 220819Z 18014KT 20/15 A2987 RMK A01 T02010153  RH  074%=      5-min Rain = 0
KWE1 220820Z 18014KT 20/15 A2987 RMK A01 T02010153  RH  074%=      5-min Rain = 0
KWE1 220821Z 18014KT 20/15 A2987 RMK A01 T02020153  RH  074%=      5-min Rain = 0
KWE1 220822Z 18014KT 20/15 A2987 RMK A01 T02020153  RH  074%=      5-min Rain = 0
KWE1 220823Z 18014KT 20/15 A2987 RMK A01 T02010153  RH  074%=      5-min Rain = 0
KWE1 220824Z 18015KT 20/15 A2987 RMK A01 T02010153  RH  074%=      5-min Rain = 0
KWE1 220825Z 18015KT 20/15 A2987 RMK A01 T02010154  RH  074%=      5-min Rain = 0
KWE1 220826Z 18015KT 20/15 A2987 RMK A01 T02010154  RH  074%=      5-min Rain = 0
KWE1 220827Z 18015KT 20/15 A2987 RMK A01 T02010154  RH  074%=      5-min Rain = 0
KWE1 220828Z 18012KT 20/15 A2987 RMK A01 T02010154  RH  074%=      5-min Rain = 0
KWE1 220829Z 18013KT 20/15 A2987 RMK A01 T02010153  RH  074%=      5-min Rain = 0
KWE1 220830Z 18014KT 20/15 A2987 RMK A01 T02000154  RH  075%=      5-min Rain = 0
KWE1 220831Z 18011KT 20/15 A2987 RMK A01 T02000154  RH  075%=      5-min Rain = 0
KWE1 220832Z 19013KT 20/15 A2986 RMK A01 T02000153  RH  075%=      5-min Rain = 0
KWE1 220833Z 18014KT 20/15 A2987 RMK A01 T02000154  RH  075%=      5-min Rain = 0
KWE1 220834Z 18014KT 20/15 A2986 RMK A01 T01990154  RH  075%=      5-min Rain = 0
KWE1 220835Z 18012KT 20/15 A2986 RMK A01 T02000154  RH  075%=      5-min Rain = 0
KWE1 220836Z 18012KT 20/15 A2986 RMK A01 T02000154  RH  074%=      5-min Rain = 0
KWE1 220837Z 18013KT 20/15 A2986 RMK A01 T02000154  RH  075%=      5-min Rain = 0
KWE1 220838Z 18013KT 20/15 A2986 RMK A01 T02000154  RH  075%=      5-min Rain = 0
KWE1 220839Z 18013KT 20/15 A2986 RMK A01 T02000154  RH  075%=      5-min Rain = 0
KWE1 220840Z 19013KT 20/15 A2987 RMK A01 T02000154  RH  075%=      5-min Rain = 0
KWE1 220841Z 18012KT 20/15 A2987 RMK A01 T01990154  RH  075%=      5-min Rain = 0
KWE1 220842Z 18012KT 20/15 A2987 RMK A01 T01990154  RH  075%=      5-min Rain = 0
KWE1 220843Z 18011KT 20/15 A2987 RMK A01 T01990154  RH  075%=      5-min Rain = 0
KWE1 220844Z 18012KT 20/15 A2987 RMK A01 T01990154  RH  075%=      5-min Rain = 0
KWE1 220845Z 18013KT 20/16 A2987 RMK A01 T01990155  RH  076%=      5-min Rain = 0
KWE1 220846Z 18011KT 20/15 A2987 RMK A01 T01980154  RH  076%=      5-min Rain = 0
KWE1 220847Z 18014KT 20/15 A2987 RMK A01 T01980154  RH  076%=      5-min Rain = 0
KWE1 220848Z 18013KT 20/16 A2987 RMK A01 T01980155  RH  076%=      5-min Rain = 0
KWE1 220849Z 18013KT 20/16 A2987 RMK A01 T01990155  RH  076%=      5-min Rain = 0
KWE1 220850Z 18011KT 20/16 A2987 RMK A01 T01990155  RH  076%=      5-min Rain = 0
KWE1 220851Z 18011KT 20/16 A2987 RMK A01 T01990155  RH  076%=      5-min Rain = 0
KWE1 220852Z 18013KT 20/16 A2987 RMK A01 T01980155  RH  076%=      5-min Rain = 0
KWE1 220853Z 18013G18KT 20/16 A2987 RMK A01 T01980155  RH  076%=      5-min Rain = 0
KWE1 220854Z 18011KT 20/16 A2987 RMK A01 T01980155  RH  076%=      5-min Rain = 0
KWE1 220855Z 18012KT 20/16 A2987 RMK A01 T01970155  RH  076%=      5-min Rain = 0
KWE1 220856Z 18013KT 20/16 A2987 RMK A01 T01970155  RH  077%=      5-min Rain = 0
KWE1 220857Z 18010KT 20/16 A2987 RMK A01 T01970155  RH  077%=      5-min Rain = 0
KWE1 220858Z 18012KT 20/16 A2987 RMK A01 T01970155  RH  077%=      5-min Rain = 0
KWE1 220859Z 18012KT 20/16 A2987 RMK A01 T01970155  RH  077%=      5-min Rain = 0
KWE1 220900Z 18011KT 20/16 A2987 RMK A01 T01970156  RH  077%=      5-min Rain = 0
KWE1 220901Z 18012KT 20/16 A2987 RMK A01 T01960155  RH  077%=      5-min Rain = 0
KWE1 220902Z 18013KT 20/16 A2987 RMK A01 T01960155  RH  077%=      5-min Rain = 0
KWE1 220903Z 18011KT 20/16 A2987 RMK A01 T01960155  RH  078%=      5-min Rain = 0
KWE1 220904Z 18012KT 20/16 A2988 RMK A01 T01950156  RH  078%=      5-min Rain = 0
KWE1 220905Z 19012KT 20/16 A2988 RMK A01 T01950156  RH  078%=      5-min Rain = 0
KWE1 220906Z 18013KT 19/16 A2988 RMK A01 T01940155  RH  078%=      5-min Rain = 0
KWE1 220907Z 18013KT 19/16 A2988 RMK A01 T01940156  RH  078%=      5-min Rain = 0
KWE1 220908Z 18012KT 19/16 A2988 RMK A01 T01940156  RH  079%=      5-min Rain = 0
KWE1 220909Z 18013KT 19/16 A2988 RMK A01 T01940156  RH  078%=      5-min Rain = 0
KWE1 220910Z 18011KT 19/16 A2988 RMK A01 T01940156  RH  078%=      5-min Rain = 0
KWE1 220911Z 18011KT 19/16 A2988 RMK A01 T01940156  RH  079%=      5-min Rain = 0
KWE1 220912Z 18013KT 19/16 A2988 RMK A01 T01940157  RH  079%=      5-min Rain = 0
KWE1 220913Z 18013KT 19/16 A2988 RMK A01 T01940156  RH  079%=      5-min Rain = 0
KWE1 220914Z 18011KT 20/16 A2988 RMK A01 T01950157  RH  079%=      5-min Rain = 0
KWE1 220915Z 18011KT 19/16 A2988 RMK A01 T01940157  RH  079%=      5-min Rain = 0
KWE1 220916Z 17011KT 19/16 A2988 RMK A01 T01940157  RH  079%=      5-min Rain = 0
KWE1 220917Z 18011KT 19/16 A2988 RMK A01 T01940157  RH  079%=      5-min Rain = 0
KWE1 220918Z 18011KT 19/16 A2988 RMK A01 T01930157  RH  079%=      5-min Rain = 0
KWE1 220919Z 17011KT 19/16 A2988 RMK A01 T01930157  RH  079%=      5-min Rain = 0
KWE1 220920Z 17011KT 19/16 A2988 RMK A01 T01930156  RH  079%=      5-min Rain = 0
KWE1 220921Z 17010KT 19/16 A2988 RMK A01 T01930157  RH  079%=      5-min Rain = 0
KWE1 220922Z 18010KT 19/16 A2988 RMK A01 T01930157  RH  080%=      5-min Rain = 0
KWE1 220923Z 18010KT 19/16 A2988 RMK A01 T01920157  RH  080%=      5-min Rain = 0
KWE1 220924Z 18011KT 19/16 A2988 RMK A01 T01920157  RH  080%=      5-min Rain = 0
KWE1 220925Z 18010KT 19/16 A2988 RMK A01 T01920157  RH  080%=      5-min Rain = 0
KWE1 220926Z 18011KT 19/16 A2988 RMK A01 T01920157  RH  080%=      5-min Rain = 0
KWE1 220927Z 18011KT 19/16 A2988 RMK A01 T01930158  RH  080%=      5-min Rain = 0
KWE1 220928Z 18012KT 19/16 A2988 RMK A01 T01930157  RH  080%=      5-min Rain = 0
KWE1 220929Z 18012KT 19/16 A2988 RMK A01 T01930158  RH  080%=      5-min Rain = 0
KWE1 220930Z 18011KT 19/16 A2988 RMK A01 T01930157  RH  080%=      5-min Rain = 0
KWE1 220931Z 18010KT 19/16 A2988 RMK A01 T01930157  RH  080%=      5-min Rain = 0
KWE1 220932Z 18010KT 19/16 A2988 RMK A01 T01930158  RH  080%=      5-min Rain = 0
KWE1 220933Z 18010KT 19/16 A2988 RMK A01 T01920157  RH  080%=      5-min Rain = 0
KWE1 220934Z 18011KT 19/16 A2988 RMK A01 T01920158  RH  080%=      5-min Rain = 0
KWE1 220935Z 18011KT 19/16 A2988 RMK A01 T01930158  RH  080%=      5-min Rain = 0
KWE1 220936Z 18011KT 19/16 A2988 RMK A01 T01920158  RH  080%=      5-min Rain = 0
KWE1 220937Z 18012KT 19/16 A2988 RMK A01 T01930158  RH  080%=      5-min Rain = 0
KWE1 220938Z 18010KT 19/16 A2988 RMK A01 T01930158  RH  080%=      5-min Rain = 0
KWE1 220939Z 18011KT 19/16 A2988 RMK A01 T01930158  RH  080%=      5-min Rain = 0
KWE1 220940Z 18010KT 19/16 A2988 RMK A01 T01930158  RH  080%=      5-min Rain = 0
KWE1 220941Z 18012KT 19/16 A2988 RMK A01 T01930158  RH  080%=      5-min Rain = 0
KWE1 220942Z 18012KT 19/16 A2988 RMK A01 T01930158  RH  080%=      5-min Rain = 0
KWE1 220943Z 18010KT 19/16 A2988 RMK A01 T01930158  RH  080%=      5-min Rain = 0
KWE1 220944Z 18011KT 19/16 A2988 RMK A01 T01930158  RH  080%=      5-min Rain = 0
KWE1 220945Z 18011KT 19/16 A2988 RMK A01 T01920158  RH  080%=      5-min Rain = 0
KWE1 220946Z 17011KT 19/16 A2989 RMK A01 T01920158  RH  081%=      5-min Rain = 0
KWE1 220947Z 18012KT 19/16 A2989 RMK A01 T01920158  RH  081%=      5-min Rain = 0
KWE1 220948Z 18012KT 19/16 A2989 RMK A01 T01920158  RH  081%=      5-min Rain = 0
KWE1 220949Z 18012KT 19/16 A2988 RMK A01 T01920158  RH  081%=      5-min Rain = 0
KWE1 220950Z 18012KT 19/16 A2988 RMK A01 T01920158  RH  081%=      5-min Rain = 0
KWE1 220951Z 18011KT 19/16 A2988 RMK A01 T01920158  RH  081%=      5-min Rain = 0
KWE1 220952Z 18013KT 19/16 A2988 RMK A01 T01920158  RH  081%=      5-min Rain = 0
KWE1 220953Z 17013KT 19/16 A2988 RMK A01 T01920158  RH  081%=      5-min Rain = 0
KWE1 220954Z 18011KT 19/16 A2988 RMK A01 T01930159  RH  081%=      5-min Rain = 0
KWE1 220955Z 18012KT 19/16 A2988 RMK A01 T01920158  RH  081%=      5-min Rain = 0
KWE1 220956Z 18013KT 19/16 A2988 RMK A01 T01920159  RH  081%=      5-min Rain = 0
KWE1 220957Z 18013KT 19/16 A2989 RMK A01 T01920159  RH  081%=      5-min Rain = 0
KWE1 220958Z 18016KT 19/16 A2988 RMK A01 T01920159  RH  081%=      5-min Rain = 0
KWE1 220959Z 17013KT 19/16 A2988 RMK A01 T01920159  RH  081%=      5-min Rain = 0
KWE1 221000Z 18013KT 19/16 A2988 RMK A01 T01930159  RH  081%=      5-min Rain = 0
KWE1 221001Z 17012KT 19/16 A2988 RMK A01 T01930159  RH  081%=      5-min Rain = 0
KWE1 221002Z 18014KT 19/16 A2988 RMK A01 T01920159  RH  081%=      5-min Rain = 0
KWE1 221003Z 18014KT 19/16 A2988 RMK A01 T01920159  RH  081%=      5-min Rain = 0
KWE1 221004Z 18013KT 19/16 A2988 RMK A01 T01920160  RH  081%=      5-min Rain = 0
KWE1 221005Z 18010KT 19/16 A2988 RMK A01 T01930159  RH  081%=      5-min Rain = 0
KWE1 221006Z 18012KT 19/16 A2988 RMK A01 T01920159  RH  081%=      5-min Rain = 0
KWE1 221007Z 18013KT 19/16 A2988 RMK A01 T01910159  RH  082%=      5-min Rain = 0
KWE1 221008Z 18014KT 19/16 A2988 RMK A01 T01910159  RH  082%=      5-min Rain = 0
KWE1 221009Z 18013KT 19/16 A2988 RMK A01 T01910159  RH  082%=      5-min Rain = 0
KWE1 221010Z 18015KT 19/16 A2988 RMK A01 T01920160  RH  082%=      5-min Rain = 0
KWE1 221011Z 17013G19KT 19/16 A2988 RMK A01 T01920159  RH  081%=      5-min Rain = 0
KWE1 221012Z 18011KT 19/16 A2988 RMK A01 T01930160  RH  081%=      5-min Rain = 0
KWE1 221013Z 17011KT 19/16 A2988 RMK A01 T01920159  RH  081%=      5-min Rain = 0
KWE1 221014Z 17011KT 19/16 A2988 RMK A01 T01910159  RH  082%=      5-min Rain = 0
KWE1 221015Z 18012KT 19/16 A2988 RMK A01 T01900159  RH  082%=      5-min Rain = 0
KWE1 221016Z 17012KT 19/16 A2988 RMK A01 T01890159  RH  083%=      5-min Rain = 0
KWE1 221017Z 17011KT 19/16 A2988 RMK A01 T01890160  RH  083%=      5-min Rain = 0
KWE1 221018Z 17011KT 19/16 A2988 RMK A01 T01890160  RH  083%=      5-min Rain = 0
KWE1 221019Z 17012KT 19/16 A2988 RMK A01 T01890159  RH  083%=      5-min Rain = 0
KWE1 221020Z 17011KT 19/16 A2988 RMK A01 T01880159  RH  083%=      5-min Rain = 0
KWE1 221021Z 17010KT 19/16 A2988 RMK A01 T01880159  RH  084%=      5-min Rain = 0
KWE1 221022Z 17010KT 19/16 A2988 RMK A01 T01880160  RH  084%=      5-min Rain = 0
KWE1 221023Z 17010KT 19/16 A2988 RMK A01 T01880160  RH  084%=      5-min Rain = 0
KWE1 221024Z 17010KT 19/16 A2988 RMK A01 T01870159  RH  084%=      5-min Rain = 0
KWE1 221025Z 17012KT 19/16 A2988 RMK A01 T01870160  RH  084%=      5-min Rain = 0
KWE1 221026Z 17012KT 19/16 A2988 RMK A01 T01870160  RH  084%=      5-min Rain = 0
KWE1 221027Z 17011KT 19/16 A2988 RMK A01 T01870160  RH  084%=      5-min Rain = 0
KWE1 221028Z 17011KT 19/16 A2988 RMK A01 T01870160  RH  084%=      5-min Rain = 0
KWE1 221029Z 18011KT 19/16 A2988 RMK A01 T01870160  RH  084%=      5-min Rain = 0
KWE1 221030Z 17010KT 19/16 A2988 RMK A01 T01870160  RH  084%=      5-min Rain = 0
KWE1 221031Z 17011KT 19/16 A2989 RMK A01 T01860160  RH  085%=      5-min Rain = 0
KWE1 221032Z 17010KT 19/16 A2989 RMK A01 T01860160  RH  085%=      5-min Rain = 0
KWE1 221033Z 18011KT 19/16 A2989 RMK A01 T01860160  RH  085%=      5-min Rain = 0
KWE1 221034Z 17010KT 19/16 A2989 RMK A01 T01860160  RH  085%=      5-min Rain = 0
KWE1 221035Z 17011KT 19/16 A2989 RMK A01 T01860160  RH  085%=      5-min Rain = 0
KWE1 221036Z 17010KT 19/16 A2989 RMK A01 T01860160  RH  085%=      5-min Rain = 0
KWE1 221037Z 17012KT 19/16 A2989 RMK A01 T01860160  RH  085%=      5-min Rain = 0
KWE1 221038Z 18012KT 19/16 A2989 RMK A01 T01860160  RH  085%=      5-min Rain = 0
KWE1 221039Z 17010KT 19/16 A2989 RMK A01 T01860160  RH  085%=      5-min Rain = 0
KWE1 221040Z 17010KT 19/16 A2989 RMK A01 T01870161  RH  085%=      5-min Rain = 0
KWE1 221041Z 17011KT 19/16 A2989 RMK A01 T01860160  RH  085%=      5-min Rain = 0
KWE1 221042Z 17011KT 19/16 A2989 RMK A01 T01860161  RH  085%=      5-min Rain = 0
KWE1 221043Z 17011KT 19/16 A2989 RMK A01 T01870161  RH  085%=      5-min Rain = 0
KWE1 221044Z 17011KT 19/16 A2989 RMK A01 T01850160  RH  085%=      5-min Rain = 0
KWE1 221045Z 17011KT 19/16 A2989 RMK A01 T01850160  RH  085%=      5-min Rain = 0
KWE1 221046Z 17011KT 19/16 A2989 RMK A01 T01850160  RH  085%=      5-min Rain = 0
KWE1 221047Z 17012KT 19/16 A2989 RMK A01 T01850160  RH  085%=      5-min Rain = 0
KWE1 221048Z 17010KT 19/16 A2989 RMK A01 T01850161  RH  086%=      5-min Rain = 0
KWE1 221049Z 17010KT 19/16 A2989 RMK A01 T01850160  RH  086%=      5-min Rain = 0
KWE1 221050Z 17012KT 18/16 A2988 RMK A01 T01840160  RH  086%=      5-min Rain = 0
KWE1 221051Z 17011KT 18/16 A2988 RMK A01 T01840160  RH  086%=      5-min Rain = 0
KWE1 221052Z 16011KT 18/16 A2988 RMK A01 T01840160  RH  086%=      5-min Rain = 0
KWE1 221053Z 17011KT 18/16 A2988 RMK A01 T01840160  RH  086%=      5-min Rain = 0
KWE1 221054Z 17012KT 18/16 A2988 RMK A01 T01840161  RH  086%=      5-min Rain = 0
KWE1 221055Z 17012KT 18/16 A2988 RMK A01 T01840161  RH  086%=      5-min Rain = 0
KWE1 221056Z 17012KT 18/16 A2988 RMK A01 T01840161  RH  086%=      5-min Rain = 0
KWE1 221057Z 17012KT 19/16 A2989 RMK A01 T01850160  RH  086%=      5-min Rain = 0
KWE1 221058Z 17011KT 19/16 A2989 RMK A01 T01850160  RH  085%=      5-min Rain = 0
KWE1 221059Z 17012KT 19/16 A2989 RMK A01 T01850160  RH  085%=      5-min Rain = 0
KWE1 221100Z 17013KT 19/16 A2989 RMK A01 T01850160  RH  086%=      5-min Rain = 0
KWE1 221101Z 17011KT 19/16 A2989 RMK A01 T01850160  RH  086%=      5-min Rain = 0
KWE1 221102Z 17012KT 19/16 A2989 RMK A01 T01850160  RH  086%=      5-min Rain = 0
KWE1 221103Z 16012KT 19/16 A2989 RMK A01 T01850161  RH  086%=      5-min Rain = 0
KWE1 221104Z 17011KT 18/16 A2989 RMK A01 T01840160  RH  086%=      5-min Rain = 0
KWE1 221105Z 17010KT 18/16 A2989 RMK A01 T01840160  RH  086%=      5-min Rain = 0
KWE1 221106Z 17013KT 18/16 A2989 RMK A01 T01840160  RH  086%=      5-min Rain = 0
KWE1 221107Z 17012KT 18/16 A2989 RMK A01 T01830160  RH  086%=      5-min Rain = 0
KWE1 221108Z 16011KT 18/16 A2989 RMK A01 T01830160  RH  086%=      5-min Rain = 0
KWE1 221109Z 17012KT 18/16 A2989 RMK A01 T01830160  RH  086%=      5-min Rain = 0
KWE1 221110Z 17011KT 18/16 A2989 RMK A01 T01830160  RH  086%=      5-min Rain = 0
KWE1 221111Z 17013KT 18/16 A2989 RMK A01 T01830160  RH  086%=      5-min Rain = 0
KWE1 221112Z 17012KT 18/16 A2989 RMK A01 T01830160  RH  086%=      5-min Rain = 0
KWE1 221113Z 17011KT 18/16 A2989 RMK A01 T01830160  RH  086%=      5-min Rain = 0
KWE1 221114Z 17012KT 18/16 A2989 RMK A01 T01830160  RH  086%=      5-min Rain = 0
KWE1 221115Z 17012KT 18/16 A2989 RMK A01 T01830160  RH  086%=      5-min Rain = 0
KWE1 221116Z 17011KT 18/16 A2989 RMK A01 T01830160  RH  086%=      5-min Rain = 0
KWE1 221117Z 17012KT 18/16 A2989 RMK A01 T01830159  RH  086%=      5-min Rain = 0
KWE1 221118Z 17012KT 18/16 A2989 RMK A01 T01830160  RH  086%=      5-min Rain = 0
KWE1 221119Z 17012KT 18/16 A2989 RMK A01 T01830160  RH  086%=      5-min Rain = 0
KWE1 221120Z 18012KT 18/16 A2989 RMK A01 T01830160  RH  086%=      5-min Rain = 0
KWE1 221121Z 18011KT 18/16 A299 RMK A01 T01830159  RH  086%=      5-min Rain = 0
KWE1 221122Z 17011KT 18/16 A299 RMK A01 T01830159  RH  086%=      5-min Rain = 0
KWE1 221123Z 17012KT 18/16 A299 RMK A01 T01830159  RH  086%=      5-min Rain = 0
KWE1 221124Z 17011KT 18/16 A299 RMK A01 T01820159  RH  086%=      5-min Rain = 0
KWE1 221125Z 18011KT 18/16 A299 RMK A01 T01820159  RH  086%=      5-min Rain = 0
KWE1 221126Z 17010KT 18/16 A299 RMK A01 T01820159  RH  086%=      5-min Rain = 0
KWE1 221127Z 17010KT 18/16 A299 RMK A01 T01820159  RH  086%=      5-min Rain = 0
KWE1 221128Z 17013KT 18/16 A299 RMK A01 T01820159  RH  086%=      5-min Rain = 0
KWE1 221129Z 17012KT 18/16 A299 RMK A01 T01810159  RH  087%=      5-min Rain = 0
KWE1 221130Z 17012KT 18/16 A299 RMK A01 T01810159  RH  086%=      5-min Rain = 0
KWE1 221131Z 17012KT 18/16 A299 RMK A01 T01820159  RH  086%=      5-min Rain = 0
KWE1 221132Z 17012KT 18/16 A299 RMK A01 T01810158  RH  086%=      5-min Rain = 0
KWE1 221133Z 17014KT 18/16 A299 RMK A01 T01810158  RH  087%=      5-min Rain = 0
KWE1 221134Z 17011KT 18/16 A299 RMK A01 T01810158  RH  086%=      5-min Rain = 0
KWE1 221135Z 17012KT 18/16 A299 RMK A01 T01810158  RH  086%=      5-min Rain = 0
KWE1 221136Z 17012KT 18/16 A299 RMK A01 T01810158  RH  086%=      5-min Rain = 0
KWE1 221137Z 17010KT 18/16 A299 RMK A01 T01810158  RH  086%=      5-min Rain = 0
KWE1 221138Z 17010KT 18/16 A299 RMK A01 T01800158  RH  086%=      5-min Rain = 0
KWE1 221139Z 17011KT 18/16 A299 RMK A01 T01800157  RH  087%=      5-min Rain = 0
KWE1 221140Z 17012KT 18/16 A299 RMK A01 T01800157  RH  087%=      5-min Rain = 0
KWE1 221141Z 17012KT 18/16 A299 RMK A01 T01800157  RH  087%=      5-min Rain = 0
KWE1 221142Z 17011KT 18/16 A299 RMK A01 T01800157  RH  087%=      5-min Rain = 0
KWE1 221143Z 18009KT 18/16 A299 RMK A01 T01800158  RH  087%=      5-min Rain = 0
KWE1 221144Z 17011KT 18/16 A299 RMK A01 T01800158  RH  087%=      5-min Rain = 0
KWE1 221145Z 17010KT 18/16 A299 RMK A01 T01800157  RH  087%=      5-min Rain = 0
KWE1 221146Z 17010KT 18/16 A299 RMK A01 T01800157  RH  087%=      5-min Rain = 0
KWE1 221147Z 17012KT 18/16 A299 RMK A01 T01800157  RH  087%=      5-min Rain = 0
KWE1 221148Z 17012KT 18/16 A299 RMK A01 T01800157  RH  087%=      5-min Rain = 0
KWE1 221149Z 17010KT 18/16 A2991 RMK A01 T01790157  RH  087%=      5-min Rain = 0
KWE1 221150Z 17010KT 18/16 A299 RMK A01 T01790157  RH  087%=      5-min Rain = 0
KWE1 221151Z 17011KT 18/16 A2991 RMK A01 T01790157  RH  087%=      5-min Rain = 0
KWE1 221152Z 17011KT 18/16 A2991 RMK A01 T01790157  RH  087%=      5-min Rain = 0
KWE1 221153Z 17010KT 18/16 A2991 RMK A01 T01790157  RH  087%=      5-min Rain = 0
KWE1 221154Z 17011KT 18/16 A2991 RMK A01 T01790157  RH  087%=      5-min Rain = 0
KWE1 221155Z 17010KT 18/16 A2991 RMK A01 T01790157  RH  087%=      5-min Rain = 0
KWE1 221156Z 17011KT 18/16 A2991 RMK A01 T01790157  RH  087%=      5-min Rain = 0
KWE1 221157Z 17012KT 18/16 A2991 RMK A01 T01790157  RH  087%=      5-min Rain = 0
KWE1 221158Z 17013KT 18/16 A2991 RMK A01 T01790157  RH  087%=      5-min Rain = 0
KWE1 221159Z 17011KT 18/16 A2991 RMK A01 T01790156  RH  086%=      5-min Rain = 0
KWE1 221200Z 17010KT 18/16 A2991 RMK A01 T01790156  RH  086%=      5-min Rain = 0
KWE1 221201Z 17012KT 18/16 A2991 RMK A01 T01790156  RH  087%=      5-min Rain = 0
KWE1 221202Z 17011KT 18/16 A2991 RMK A01 T01780156  RH  087%=      5-min Rain = 0
KWE1 221203Z 17011KT 18/16 A2991 RMK A01 T01780156  RH  087%=      5-min Rain = 0
KWE1 221204Z 17011KT 18/16 A2991 RMK A01 T01780156  RH  087%=      5-min Rain = 0
KWE1 221205Z 17010KT 18/16 A2991 RMK A01 T01780156  RH  087%=      5-min Rain = 0
KWE1 221206Z 17012KT 18/16 A2991 RMK A01 T01780155  RH  087%=      5-min Rain = 0
KWE1 221207Z 17013KT 18/16 A2991 RMK A01 T01780155  RH  087%=      5-min Rain = 0
KWE1 221208Z 17011KT 18/16 A2991 RMK A01 T01780155  RH  087%=      5-min Rain = 0
KWE1 221209Z 17011KT 18/16 A2991 RMK A01 T01780155  RH  087%=      5-min Rain = 0
KWE1 221210Z 17012KT 18/16 A2991 RMK A01 T01780155  RH  087%=      5-min Rain = 0
KWE1 221211Z 17013KT 18/16 A2991 RMK A01 T01780156  RH  087%=      5-min Rain = 0
KWE1 221212Z 17012KT 18/16 A2991 RMK A01 T01780155  RH  087%=      5-min Rain = 0
KWE1 221213Z 17011KT 18/16 A2991 RMK A01 T01780155  RH  086%=      5-min Rain = 0
KWE1 221214Z 17012KT 18/16 A2991 RMK A01 T01780155  RH  086%=      5-min Rain = 0
KWE1 221215Z 17012KT 18/16 A2991 RMK A01 T01780156  RH  087%=      5-min Rain = 0
KWE1 221216Z 17011KT 18/16 A2991 RMK A01 T01780156  RH  086%=      5-min Rain = 0
KWE1 221217Z 17011KT 18/16 A2991 RMK A01 T01780156  RH  086%=      5-min Rain = 0
KWE1 221218Z 18011KT 18/16 A2991 RMK A01 T01780156  RH  087%=      5-min Rain = 0
KWE1 221219Z 17011KT 18/16 A2991 RMK A01 T01780155  RH  086%=      5-min Rain = 0
KWE1 221220Z 17011KT 18/16 A2991 RMK A01 T01780155  RH  086%=      5-min Rain = 0
KWE1 221221Z 17011KT 18/16 A2991 RMK A01 T01780155  RH  086%=      5-min Rain = 0
KWE1 221222Z 17012KT 18/16 A2991 RMK A01 T01780155  RH  086%=      5-min Rain = 0
KWE1 221223Z 17011KT 18/16 A2991 RMK A01 T01780155  RH  086%=      5-min Rain = 0
KWE1 221224Z 17012KT 18/16 A2991 RMK A01 T01780155  RH  086%=      5-min Rain = 0
KWE1 221225Z 18011KT 18/16 A2991 RMK A01 T01780155  RH  086%=      5-min Rain = 0
KWE1 221226Z 17011KT 18/16 A2991 RMK A01 T01780155  RH  087%=      5-min Rain = 0
KWE1 221227Z 18011KT 18/16 A2991 RMK A01 T01780155  RH  087%=      5-min Rain = 0
KWE1 221228Z 17011KT 18/16 A2991 RMK A01 T01780155  RH  087%=      5-min Rain = 0
KWE1 221229Z 17010KT 18/16 A2992 RMK A01 T01780155  RH  087%=      5-min Rain = 0
KWE1 221230Z 17012KT 18/16 A2992 RMK A01 T01780155  RH  087%=      5-min Rain = 0
KWE1 221231Z 18010KT 18/16 A2992 RMK A01 T01780155  RH  087%=      5-min Rain = 0
KWE1 221232Z 18010KT 18/16 A2992 RMK A01 T01780155  RH  086%=      5-min Rain = 0
KWE1 221233Z 17011KT 18/16 A2992 RMK A01 T01780155  RH  086%=      5-min Rain = 0
KWE1 221234Z 17012KT 18/16 A2992 RMK A01 T01780155  RH  086%=      5-min Rain = 0
KWE1 221235Z 17011KT 18/16 A2992 RMK A01 T01780155  RH  086%=      5-min Rain = 0
KWE1 221236Z 17010KT 18/16 A2992 RMK A01 T01780155  RH  086%=      5-min Rain = 0
KWE1 221237Z 17011KT 18/16 A2992 RMK A01 T01780155  RH  086%=      5-min Rain = 0
KWE1 221238Z 17011KT 18/16 A2992 RMK A01 T01780155  RH  086%=      5-min Rain = 0
KWE1 221239Z 17011KT 18/16 A2992 RMK A01 T01780155  RH  086%=      5-min Rain = 0
KWE1 221240Z 16011KT 18/16 A2992 RMK A01 T01780155  RH  086%=      5-min Rain = 0
KWE1 221241Z 17012KT 18/16 A2992 RMK A01 T01780155  RH  086%=      5-min Rain = 0
KWE1 221242Z 17009KT 18/16 A2993 RMK A01 T01780155  RH  086%=      5-min Rain = 0
KWE1 221243Z 17012KT 18/16 A2993 RMK A01 T01780155  RH  086%=      5-min Rain = 0
KWE1 221244Z 17010KT 18/16 A2993 RMK A01 T01780155  RH  086%=      5-min Rain = 0
KWE1 221245Z 16010KT 18/16 A2993 RMK A01 T01780155  RH  086%=      5-min Rain = 0
KWE1 221246Z 17011KT 18/16 A2993 RMK A01 T01780155  RH  086%=      5-min Rain = 0
KWE1 221247Z 17010KT 18/16 A2993 RMK A01 T01780155  RH  086%=      5-min Rain = 0
KWE1 221248Z 17010KT 18/16 A2993 RMK A01 T01790155  RH  086%=      5-min Rain = 0
KWE1 221249Z 17010KT 18/16 A2993 RMK A01 T01790155  RH  086%=      5-min Rain = 0
KWE1 221250Z 17010KT 18/16 A2993 RMK A01 T01790155  RH  086%=      5-min Rain = 0
KWE1 221251Z 16010KT 18/16 A2993 RMK A01 T01790155  RH  086%=      5-min Rain = 0
KWE1 221252Z 17011KT 18/16 A2993 RMK A01 T01790155  RH  086%=      5-min Rain = 0
KWE1 221253Z 17012KT 18/16 A2993 RMK A01 T01790155  RH  086%=      5-min Rain = 0
KWE1 221254Z 17011KT 18/16 A2993 RMK A01 T01790155  RH  086%=      5-min Rain = 0
KWE1 221255Z 16010KT 18/16 A2993 RMK A01 T01790155  RH  085%=      5-min Rain = 0
KWE1 221256Z 16011KT 18/16 A2994 RMK A01 T01800155  RH  085%=      5-min Rain = 0
KWE1 221257Z 16010KT 18/16 A2994 RMK A01 T01800155  RH  085%=      5-min Rain = 0
KWE1 221258Z 16010KT 18/16 A2994 RMK A01 T01800155  RH  085%=      5-min Rain = 0
KWE1 221259Z 16009KT 18/16 A2994 RMK A01 T01800155  RH  085%=      5-min Rain = 0
KWE1 221300Z 16010KT 18/16 A2994 RMK A01 T01800155  RH  085%=      5-min Rain = 0
KWE1 221301Z 17009KT 18/16 A2994 RMK A01 T01800155  RH  085%=      5-min Rain = 0
KWE1 221302Z 16008KT 18/16 A2994 RMK A01 T01800155  RH  085%=      5-min Rain = 0
KWE1 221303Z 16009KT 18/16 A2994 RMK A01 T01800155  RH  085%=      5-min Rain = 0
KWE1 221304Z 16008KT 18/16 A2994 RMK A01 T01800155  RH  085%=      5-min Rain = 0
KWE1 221305Z 16008KT 18/16 A2995 RMK A01 T01810155  RH  085%=      5-min Rain = 0
KWE1 221306Z 16008KT 18/16 A2995 RMK A01 T01810155  RH  085%=      5-min Rain = 0
KWE1 221307Z 16008KT 18/16 A2995 RMK A01 T01810156  RH  085%=      5-min Rain = 0
KWE1 221308Z 16008KT 18/16 A2995 RMK A01 T01810155  RH  085%=      5-min Rain = 0
KWE1 221309Z 16007KT 18/16 A2995 RMK A01 T01810155  RH  085%=      5-min Rain = 0
KWE1 221310Z 17009KT 18/16 A2995 RMK A01 T01810155  RH  085%=      5-min Rain = 0
KWE1 221311Z 16007KT 18/16 A2995 RMK A01 T01800155  RH  085%=      5-min Rain = 0
KWE1 221312Z 16007KT 18/16 A2996 RMK A01 T01800155  RH  085%=      5-min Rain = 0
KWE1 221313Z 17007KT 18/16 A2996 RMK A01 T01800155  RH  085%=      5-min Rain = 0
KWE1 221314Z 17006KT 18/16 A2996 RMK A01 T01810155  RH  085%=      5-min Rain = 0
KWE1 221315Z 16005KT 18/16 A2997 RMK A01 T01810155  RH  085%=      5-min Rain = 0
KWE1 221316Z 17004KT 18/16 A2997 RMK A01 T01810155  RH  085%=      5-min Rain = 0
KWE1 221317Z 18002KT 18/16 A2997 RMK A01 T01810155  RH  085%=      5-min Rain = 0
KWE1 221318Z 21002KT 18/16 A2998 RMK A01 T01810155  RH  085%=      5-min Rain = 0
KWE1 221319Z 28002KT 18/16 A2998 RMK A01 T01820156  RH  085%=      5-min Rain = 0
KWE1 221320Z 19002KT 18/16 A2998 RMK A01 T01820156  RH  085%=      5-min Rain = 0
KWE1 221321Z 17002KT 18/16 A2998 RMK A01 T01820155  RH  084%=      5-min Rain = 0
KWE1 221322Z 18004KT 18/16 A2998 RMK A01 T01820155  RH  084%=      5-min Rain = 0
KWE1 221323Z 18004KT 18/16 A2998 RMK A01 T01830155  RH  084%=      5-min Rain = 0
KWE1 221324Z 18005KT 18/16 A2998 RMK A01 T01820155  RH  084%=      5-min Rain = 0
KWE1 221325Z 17004KT 18/16 A2998 RMK A01 T01830156  RH  084%=      5-min Rain = 0
KWE1 221326Z 19003KT 18/16 A2998 RMK A01 T01830156  RH  084%=      5-min Rain = 0
KWE1 221327Z 19002KT 18/16 A2999 RMK A01 T01830156  RH  084%=      5-min Rain = 0
KWE1 221328Z 22002KT 18/16 A2999 RMK A01 T01840156  RH  084%=      5-min Rain = 0
KWE1 221329Z 29002KT 18/16 A2999 RMK A01 T01840157  RH  084%=      5-min Rain = 0
KWE1 221330Z 30003KT 18/16 A30 RMK A01 T01840157  RH  084%=      5-min Rain = 0
KWE1 221331Z 30002KT 18/16 A2999 RMK A01 T01840158  RH  084%=      5-min Rain = 0
KWE1 221332Z 27002KT 18/16 A2999 RMK A01 T01840157  RH  084%=      5-min Rain = 0
KWE1 221333Z 19001KT 18/16 A2999 RMK A01 T01840157  RH  084%=      5-min Rain = 0
KWE1 221334Z 17002KT 18/16 A2999 RMK A01 T01840156  RH  084%=      5-min Rain = 0
KWE1 221335Z 17005KT 18/16 A2998 RMK A01 T01840157  RH  084%=      5-min Rain = 0
KWE1 221336Z 17005KT 19/16 A2998 RMK A01 T01850157  RH  084%=      5-min Rain = 0
KWE1 221337Z 18003KT 19/16 A2999 RMK A01 T01850157  RH  084%=      5-min Rain = 0
KWE1 221338Z 19002KT 19/16 A2999 RMK A01 T01850157  RH  084%=      5-min Rain = 0
KWE1 221339Z 23001KT 19/16 A2999 RMK A01 T01850157  RH  084%=      5-min Rain = 0
KWE1 221340Z 27001KT 19/16 A30 RMK A01 T01850158  RH  084%=      5-min Rain = 0
KWE1 221341Z 23000KT 19/16 A30 RMK A01 T01850158  RH  084%=      5-min Rain = 0
KWE1 221342Z 25000KT 19/16 A30 RMK A01 T01850157  RH  084%=      5-min Rain = 0
KWE1 221343Z 22001KT 19/16 A30 RMK A01 T01860157  RH  084%=      5-min Rain = 0
KWE1 221344Z 18003KT 19/16 A2999 RMK A01 T01860157  RH  083%=      5-min Rain = 0
KWE1 221345Z 18005KT 19/16 A2999 RMK A01 T01860157  RH  083%=      5-min Rain = 0
KWE1 221346Z 18006KT 19/16 A2999 RMK A01 T01860157  RH  083%=      5-min Rain = 0
KWE1 221347Z 18006KT 19/16 A2999 RMK A01 T01860158  RH  084%=      5-min Rain = 0
KWE1 221348Z 18006KT 19/16 A2999 RMK A01 T01860158  RH  084%=      5-min Rain = 0
KWE1 221349Z 18006KT 19/16 A2999 RMK A01 T01860158  RH  084%=      5-min Rain = 0
KWE1 221350Z 19005KT 19/16 A2999 RMK A01 T01860158  RH  083%=      5-min Rain = 0
KWE1 221351Z 19004KT 19/16 A2999 RMK A01 T01870158  RH  083%=      5-min Rain = 0
KWE1 221352Z 21002KT 19/16 A30 RMK A01 T01870157  RH  083%=      5-min Rain = 0
KWE1 221353Z 22002KT 19/16 A30 RMK A01 T01870159  RH  084%=      5-min Rain = 0
KWE1 221354Z 22002KT 19/16 A30 RMK A01 T01870158  RH  083%=      5-min Rain = 0
KWE1 221355Z 21001KT 19/16 A30 RMK A01 T01870157  RH  083%=      5-min Rain = 0
KWE1 221356Z 20001KT 19/16 A30 RMK A01 T01880158  RH  083%=      5-min Rain = 0
KWE1 221357Z 20003KT 19/16 A30 RMK A01 T01880158  RH  083%=      5-min Rain = 0
KWE1 221358Z 19003KT 19/16 A30 RMK A01 T01880158  RH  082%=      5-min Rain = 0
KWE1 221359Z 18004KT 19/16 A30 RMK A01 T01880158  RH  083%=      5-min Rain = 0
KWE1 221400Z 19004KT 19/16 A2999 RMK A01 T01880158  RH  083%=      5-min Rain = 0
KWE1 221401Z 19004KT 19/16 A30 RMK A01 T01890158  RH  082%=      5-min Rain = 0
KWE1 221402Z 19002KT 19/16 A30 RMK A01 T01890157  RH  082%=      5-min Rain = 0
KWE1 221403Z 21001KT 19/16 A30 RMK A01 T01890159  RH  083%=      5-min Rain = 0
KWE1 221404Z 27002KT 19/16 A30 RMK A01 T01890159  RH  083%=      5-min Rain = 0
KWE1 221405Z 27002KT 19/16 A3001 RMK A01 T01900159  RH  082%=      5-min Rain = 0
KWE1 221406Z 29003KT 19/16 A3001 RMK A01 T01900159  RH  083%=      5-min Rain = 0
KWE1 221407Z 27003KT 19/16 A30 RMK A01 T01900160  RH  083%=      5-min Rain = 0
KWE1 221408Z 25003KT 19/16 A30 RMK A01 T01900160  RH  083%=      5-min Rain = 0
KWE1 221409Z 20003KT 19/16 A30 RMK A01 T01890160  RH  083%=      5-min Rain = 0
KWE1 221410Z 18004KT 19/16 A30 RMK A01 T01890160  RH  083%=      5-min Rain = 0
KWE1 221411Z 21005KT 19/16 A30 RMK A01 T01900160  RH  083%=      5-min Rain = 0
KWE1 221412Z 21004KT 19/16 A30 RMK A01 T01890159  RH  082%=      5-min Rain = 0
KWE1 221413Z 21003KT 19/16 A30 RMK A01 T01890159  RH  083%=      5-min Rain = 0
KWE1 221414Z 21003KT 19/16 A30 RMK A01 T01890160  RH  083%=      5-min Rain = 0
KWE1 221415Z 19003KT 19/16 A30 RMK A01 T01890159  RH  082%=      5-min Rain = 0
KWE1 221416Z 20003KT 19/16 A30 RMK A01 T01890159  RH  082%=      5-min Rain = 0
KWE1 221417Z 20002KT 19/16 A30 RMK A01 T01890157  RH  082%=      5-min Rain = 0
KWE1 221418Z 22002KT 19/16 A30 RMK A01 T01900158  RH  082%=      5-min Rain = 0
KWE1 221419Z 21003KT 19/16 A30 RMK A01 T01900159  RH  082%=      5-min Rain = 0
KWE1 221420Z 20003KT 19/16 A30 RMK A01 T01900158  RH  082%=      5-min Rain = 0
KWE1 221421Z 20004KT 19/16 A30 RMK A01 T01890158  RH  082%=      5-min Rain = 0
KWE1 221422Z 18004KT 19/16 A30 RMK A01 T01890158  RH  082%=      5-min Rain = 0
KWE1 221423Z 18003KT 19/16 A30 RMK A01 T01900159  RH  082%=      5-min Rain = 0
KWE1 221424Z 18002KT 19/16 A30 RMK A01 T01900159  RH  082%=      5-min Rain = 0
KWE1 221425Z 19002KT 19/16 A3001 RMK A01 T01900158  RH  082%=      5-min Rain = 0
KWE1 221426Z 20003KT 19/16 A3001 RMK A01 T01900158  RH  082%=      5-min Rain = 0
KWE1 221427Z 19002KT 19/16 A3001 RMK A01 T01900159  RH  082%=      5-min Rain = 0
KWE1 221428Z 22002KT 19/16 A3001 RMK A01 T01900158  RH  082%=      5-min Rain = 0
KWE1 221429Z 21002KT 19/16 A30 RMK A01 T01900159  RH  082%=      5-min Rain = 0
KWE1 221430Z 20003KT 19/16 A30 RMK A01 T01900160  RH  083%=      5-min Rain = 0
KWE1 221431Z 18004KT 19/16 A30 RMK A01 T01900160  RH  083%=      5-min Rain = 0
KWE1 221432Z 17005KT 19/16 A30 RMK A01 T01910160  RH  082%=      5-min Rain = 0
KWE1 221433Z 17004KT 19/16 A30 RMK A01 T01910158  RH  081%=      5-min Rain = 0
KWE1 221434Z 17005KT 19/16 A30 RMK A01 T01910158  RH  081%=      5-min Rain = 0
KWE1 221435Z 18004KT 19/16 A30 RMK A01 T01920159  RH  081%=      5-min Rain = 0
KWE1 221436Z 20004KT 19/16 A30 RMK A01 T01920159  RH  081%=      5-min Rain = 0
KWE1 221437Z 21003KT 19/16 A30 RMK A01 T01930159  RH  081%=      5-min Rain = 0
KWE1 221438Z 23003KT 19/16 A30 RMK A01 T01930159  RH  081%=      5-min Rain = 0
KWE1 221439Z 23004KT 19/16 A30 RMK A01 T01930160  RH  081%=      5-min Rain = 0
KWE1 221440Z 22004KT 19/16 A30 RMK A01 T01930159  RH  080%=      5-min Rain = 0
KWE1 221441Z 21004KT 19/16 A30 RMK A01 T01930160  RH  081%=      5-min Rain = 0
KWE1 221442Z 19005KT 19/16 A30 RMK A01 T01940159  RH  080%=      5-min Rain = 0
KWE1 221443Z 19006KT 19/16 A30 RMK A01 T01940161  RH  081%=      5-min Rain = 0
KWE1 221444Z 18007KT 20/16 A30 RMK A01 T01960161  RH  081%=      5-min Rain = 0
KWE1 221445Z 18008KT 20/16 A30 RMK A01 T01960160  RH  079%=      5-min Rain = 0
KWE1 221446Z 18007KT 20/16 A30 RMK A01 T01970160  RH  079%=      5-min Rain = 0
KWE1 221447Z 18006KT 20/16 A30 RMK A01 T01980161  RH  079%=      5-min Rain = 0
KWE1 221448Z 17007KT 20/16 A30 RMK A01 T01980161  RH  079%=      5-min Rain = 0
KWE1 221449Z 18006KT 20/16 A30 RMK A01 T01990161  RH  078%=      5-min Rain = 0
KWE1 221450Z 19005KT 20/16 A30 RMK A01 T01990160  RH  078%=      5-min Rain = 0
KWE1 221451Z 19004KT 20/16 A3001 RMK A01 T01990160  RH  078%=      5-min Rain = 0
KWE1 221452Z 20004KT 20/16 A3001 RMK A01 T01990161  RH  079%=      5-min Rain = 0
KWE1 221453Z 20003KT 20/16 A3001 RMK A01 T01990160  RH  078%=      5-min Rain = 0
KWE1 221454Z 18005KT 20/16 A3001 RMK A01 T01990161  RH  079%=      5-min Rain = 0
KWE1 221455Z 18004KT 20/16 A3001 RMK A01 T01990159  RH  078%=      5-min Rain = 0
KWE1 221456Z 19004KT 20/16 A3001 RMK A01 T01990159  RH  078%=      5-min Rain = 0
KWE1 221457Z 19004KT 20/16 A3001 RMK A01 T01990160  RH  078%=      5-min Rain = 0
KWE1 221458Z 19005KT 20/16 A3001 RMK A01 T01990159  RH  078%=      5-min Rain = 0
KWE1 221459Z 19006KT 20/16 A30 RMK A01 T01990160  RH  078%=      5-min Rain = 0
KWE1 221500Z 19007KT 20/16 A30 RMK A01 T01990160  RH  078%=      5-min Rain = 0
KWE1 221501Z 19008KT 20/16 A30 RMK A01 T02010161  RH  078%=      5-min Rain = 0
KWE1 221502Z 17008KT 20/16 A2999 RMK A01 T02030162  RH  077%=      5-min Rain = 0
KWE1 221503Z 18009KT 20/16 A2999 RMK A01 T02040161  RH  076%=      5-min Rain = 0
KWE1 221504Z 18009KT 20/16 A2999 RMK A01 T02040161  RH  076%=      5-min Rain = 0
KWE1 221505Z 18010KT 20/16 A2999 RMK A01 T02040162  RH  076%=      5-min Rain = 0
KWE1 221506Z 18008KT 20/16 A2999 RMK A01 T02040162  RH  076%=      5-min Rain = 0
KWE1 221507Z 17006KT 20/16 A2999 RMK A01 T02040161  RH  076%=      5-min Rain = 0
KWE1 221508Z 17007KT 21/16 A30 RMK A01 T02050162  RH  076%=      5-min Rain = 0
KWE1 221509Z 17005KT 21/16 A30 RMK A01 T02060162  RH  076%=      5-min Rain = 0
KWE1 221510Z 19005KT 21/16 A30 RMK A01 T02070164  RH  076%=      5-min Rain = 0
KWE1 221511Z 18004KT 21/16 A30 RMK A01 T02070162  RH  076%=      5-min Rain = 0
KWE1 221512Z 20005KT 21/16 A3001 RMK A01 T02070162  RH  076%=      5-min Rain = 0
KWE1 221513Z 18005KT 21/16 A30 RMK A01 T02050160  RH  075%=      5-min Rain = 0
KWE1 221514Z 17007KT 20/16 A30 RMK A01 T02040161  RH  076%=      5-min Rain = 0
KWE1 221515Z 16008KT 20/16 A30 RMK A01 T02030160  RH  076%=      5-min Rain = 0
KWE1 221516Z 17008KT 20/16 A30 RMK A01 T02030160  RH  076%=      5-min Rain = 0
KWE1 221517Z 18010KT 20/16 A2999 RMK A01 T02030159  RH  076%=      5-min Rain = 0
KWE1 221518Z 18010KT 20/16 A2999 RMK A01 T02030161  RH  076%=      5-min Rain = 0
KWE1 221519Z 18009KT 20/16 A2999 RMK A01 T02040161  RH  076%=      5-min Rain = 0
KWE1 221520Z 18008KT 21/16 A2999 RMK A01 T02050161  RH  076%=      5-min Rain = 0
KWE1 221521Z 18008KT 21/16 A2999 RMK A01 T02060162  RH  076%=      5-min Rain = 0
KWE1 221522Z 18008KT 21/16 A2999 RMK A01 T02060162  RH  076%=      5-min Rain = 0
KWE1 221523Z 18008KT 21/16 A30 RMK A01 T02060162  RH  076%=      5-min Rain = 0
KWE1 221524Z 20006KT 21/16 A30 RMK A01 T02060162  RH  076%=      5-min Rain = 0
KWE1 221525Z 19007KT 21/16 A30 RMK A01 T02070162  RH  076%=      5-min Rain = 0
KWE1 221526Z 19007KT 21/16 A30 RMK A01 T02070161  RH  075%=      5-min Rain = 0
KWE1 221527Z 19008KT 21/16 A30 RMK A01 T02060161  RH  075%=      5-min Rain = 0
KWE1 221528Z 19007KT 21/16 A30 RMK A01 T02060162  RH  075%=      5-min Rain = 0
KWE1 221529Z 18008KT 21/16 A30 RMK A01 T02070162  RH  075%=      5-min Rain = 0
KWE1 221530Z 18009KT 21/16 A2999 RMK A01 T02070161  RH  075%=      5-min Rain = 0
KWE1 221531Z 19008KT 21/16 A2999 RMK A01 T02080161  RH  074%=      5-min Rain = 0
KWE1 221532Z 18007KT 21/16 A2999 RMK A01 T02080161  RH  075%=      5-min Rain = 0
KWE1 221533Z 18008KT 21/16 A2999 RMK A01 T02080161  RH  075%=      5-min Rain = 0
KWE1 221534Z 18008KT 21/16 A2999 RMK A01 T02080161  RH  075%=      5-min Rain = 0
KWE1 221535Z 17008KT 21/16 A2999 RMK A01 T02080162  RH  074%=      5-min Rain = 0
KWE1 221536Z 18008KT 21/16 A2999 RMK A01 T02080162  RH  075%=      5-min Rain = 0
KWE1 221537Z 18008KT 21/16 A2999 RMK A01 T02080160  RH  074%=      5-min Rain = 0
KWE1 221538Z 17007KT 21/16 A2999 RMK A01 T02080161  RH  075%=      5-min Rain = 0
KWE1 221539Z 17006KT 21/16 A2999 RMK A01 T02080160  RH  074%=      5-min Rain = 0
KWE1 221540Z 18006KT 21/16 A2999 RMK A01 T02090161  RH  074%=      5-min Rain = 0
KWE1 221541Z 18008KT 21/16 A2999 RMK A01 T02090162  RH  074%=      5-min Rain = 0
KWE1 221542Z 17008KT 21/16 A2999 RMK A01 T02100163  RH  074%=      5-min Rain = 0
KWE1 221543Z 17009KT 21/16 A2999 RMK A01 T02110162  RH  074%=      5-min Rain = 0
KWE1 221544Z 17010KT 21/16 A2999 RMK A01 T02110162  RH  074%=      5-min Rain = 0
KWE1 221545Z 18009KT 21/16 A2998 RMK A01 T02110162  RH  074%=      5-min Rain = 0
KWE1 221546Z 18010KT 21/16 A2998 RMK A01 T02110163  RH  074%=      5-min Rain = 0
KWE1 221547Z 17009KT 21/16 A2998 RMK A01 T02120161  RH  073%=      5-min Rain = 0
KWE1 221548Z 18009KT 21/16 A2999 RMK A01 T02120162  RH  073%=      5-min Rain = 0
KWE1 221549Z 17009KT 21/16 A2999 RMK A01 T02120162  RH  073%=      5-min Rain = 0
KWE1 221550Z 18008KT 21/16 A2999 RMK A01 T02120161  RH  072%=      5-min Rain = 0
KWE1 221551Z 17008KT 21/16 A2999 RMK A01 T02130161  RH  072%=      5-min Rain = 0
KWE1 221552Z 18008KT 21/16 A2999 RMK A01 T02120159  RH  071%=      5-min Rain = 0
KWE1 221553Z 18007KT 21/16 A2999 RMK A01 T02120159  RH  072%=      5-min Rain = 0
KWE1 221554Z 18007KT 21/16 A2999 RMK A01 T02120160  RH  072%=      5-min Rain = 0
KWE1 221555Z 18007KT 21/16 A2999 RMK A01 T02130162  RH  073%=      5-min Rain = 0
KWE1 221556Z 17008KT 21/16 A2999 RMK A01 T02140162  RH  072%=      5-min Rain = 0
KWE1 221557Z 18008KT 21/16 A2999 RMK A01 T02140160  RH  071%=      5-min Rain = 0
KWE1 221558Z 18008KT 21/16 A2999 RMK A01 T02140161  RH  072%=      5-min Rain = 0
KWE1 221559Z 18008KT 21/16 A2999 RMK A01 T02140160  RH  072%=      5-min Rain = 0
KWE1 221600Z 17008KT 21/16 A2998 RMK A01 T02130161  RH  072%=      5-min Rain = 0
KWE1 221601Z 17009KT 21/16 A2998 RMK A01 T02130159  RH  071%=      5-min Rain = 0
KWE1 221602Z 19008KT 21/16 A2999 RMK A01 T02140161  RH  072%=      5-min Rain = 0
KWE1 221603Z 19007KT 22/16 A2999 RMK A01 T02150160  RH  071%=      5-min Rain = 0
KWE1 221604Z 18009KT 21/16 A2999 RMK A01 T02140161  RH  072%=      5-min Rain = 0
KWE1 221605Z 19006KT 21/16 A2999 RMK A01 T02140159  RH  071%=      5-min Rain = 0
KWE1 221606Z 18007KT 21/16 A2999 RMK A01 T02140160  RH  071%=      5-min Rain = 0
KWE1 221607Z 18009KT 21/16 A2999 RMK A01 T02140160  RH  071%=      5-min Rain = 0
KWE1 221608Z 19008KT 21/16 A2999 RMK A01 T02140160  RH  072%=      5-min Rain = 0
KWE1 221609Z 20009KT 21/16 A2999 RMK A01 T02140161  RH  072%=      5-min Rain = 0
KWE1 221610Z 18009KT 21/16 A2999 RMK A01 T02140161  RH  072%=      5-min Rain = 0
KWE1 221611Z 18010KT 22/16 A2999 RMK A01 T02150160  RH  071%=      5-min Rain = 0
KWE1 221612Z 19009KT 22/16 A2999 RMK A01 T02160160  RH  071%=      5-min Rain = 0
KWE1 221613Z 20008KT 22/16 A2999 RMK A01 T02160161  RH  071%=      5-min Rain = 0
KWE1 221614Z 18009KT 22/16 A2999 RMK A01 T02170162  RH  071%=      5-min Rain = 0
KWE1 221615Z 18007KT 22/16 A2999 RMK A01 T02180162  RH  070%=      5-min Rain = 0
KWE1 221616Z 20007KT 22/16 A2999 RMK A01 T02190162  RH  070%=      5-min Rain = 0
KWE1 221617Z 19008KT 22/16 A2999 RMK A01 T02190161  RH  070%=      5-min Rain = 0
KWE1 221618Z 19007KT 22/16 A2999 RMK A01 T02180162  RH  070%=      5-min Rain = 0
KWE1 221619Z 20005KT 22/16 A2999 RMK A01 T02190163  RH  070%=      5-min Rain = 0
KWE1 221620Z 20006KT 22/16 A2999 RMK A01 T02200163  RH  070%=      5-min Rain = 0
KWE1 221621Z 18008KT 22/16 A2999 RMK A01 T02200162  RH  070%=      5-min Rain = 0
KWE1 221622Z 19008KT 22/16 A2999 RMK A01 T02200161  RH  069%=      5-min Rain = 0
KWE1 221623Z 20008KT 22/16 A2999 RMK A01 T02200162  RH  069%=      5-min Rain = 0
KWE1 221624Z 20007KT 22/16 A2999 RMK A01 T02190162  RH  070%=      5-min Rain = 0
KWE1 221625Z 20008KT 22/16 A2999 RMK A01 T02190161  RH  070%=      5-min Rain = 0
KWE1 221626Z 20006KT 22/16 A2999 RMK A01 T02190161  RH  070%=      5-min Rain = 0
KWE1 221627Z 19008KT 22/16 A2999 RMK A01 T02200163  RH  070%=      5-min Rain = 0
KWE1 221628Z 19008KT 22/16 A2999 RMK A01 T02220163  RH  069%=      5-min Rain = 0
KWE1 221629Z 20006KT 22/16 A30 RMK A01 T02240164  RH  069%=      5-min Rain = 0
KWE1 221630Z 19007KT 23/16 A30 RMK A01 T02250163  RH  068%=      5-min Rain = 0
KWE1 221631Z 20008KT 23/16 A30 RMK A01 T02250164  RH  068%=      5-min Rain = 0
KWE1 221632Z 19008KT 23/16 A30 RMK A01 T02250163  RH  068%=      5-min Rain = 0
KWE1 221633Z 19007KT 23/16 A30 RMK A01 T02270164  RH  068%=      5-min Rain = 0
KWE1 221634Z 20010KT 23/16 A30 RMK A01 T02280162  RH  066%=      5-min Rain = 0
KWE1 221635Z 21007KT 23/16 A30 RMK A01 T02280163  RH  067%=      5-min Rain = 0
KWE1 221636Z 20007KT 23/17 A30 RMK A01 T02290166  RH  068%=      5-min Rain = 0
KWE1 221637Z 22008KT 23/17 A30 RMK A01 T02300165  RH  066%=      5-min Rain = 0
KWE1 221638Z 21009KT 23/17 A30 RMK A01 T02310165  RH  066%=      5-min Rain = 0
KWE1 221639Z 20007KT 23/16 A30 RMK A01 T02310163  RH  066%=      5-min Rain = 0
KWE1 221640Z 21008KT 23/16 A30 RMK A01 T02300162  RH  066%=      5-min Rain = 0
KWE1 221641Z 20007KT 23/16 A30 RMK A01 T02290164  RH  066%=      5-min Rain = 0
KWE1 221642Z 22008KT 23/16 A30 RMK A01 T02300164  RH  066%=      5-min Rain = 0
KWE1 221643Z 23009KT 23/17 A30 RMK A01 T02330167  RH  067%=      5-min Rain = 0
KWE1 221644Z 23008KT 23/16 A30 RMK A01 T02330162  RH  064%=      5-min Rain = 0
KWE1 221645Z 21007KT 23/16 A30 RMK A01 T02310161  RH  065%=      5-min Rain = 0
KWE1 221646Z 24008KT 23/16 A30 RMK A01 T02300164  RH  067%=      5-min Rain = 0
KWE1 221647Z 23008KT 23/17 A30 RMK A01 T02310165  RH  066%=      5-min Rain = 0
KWE1 221648Z 21007KT 23/16 A30 RMK A01 T02320164  RH  065%=      5-min Rain = 0
KWE1 221649Z 21006KT 23/16 A30 RMK A01 T02310161  RH  065%=      5-min Rain = 0
KWE1 221650Z 21006KT 23/16 A30 RMK A01 T02310164  RH  066%=      5-min Rain = 0
KWE1 221651Z 22008KT 23/16 A30 RMK A01 T02310164  RH  066%=      5-min Rain = 0
KWE1 221652Z 22010KT 23/16 A30 RMK A01 T02310163  RH  066%=      5-min Rain = 0
KWE1 221653Z 22007KT 23/16 A30 RMK A01 T02300162  RH  065%=      5-min Rain = 0
KWE1 221654Z 24006KT 23/16 A3001 RMK A01 T02300160  RH  065%=      5-min Rain = 0
KWE1 221655Z 22009KT 23/16 A3001 RMK A01 T02290163  RH  066%=      5-min Rain = 0
KWE1 221656Z 23007KT 23/17 A3001 RMK A01 T02310165  RH  067%=      5-min Rain = 0
KWE1 221657Z 25007KT 23/17 A3001 RMK A01 T02320165  RH  066%=      5-min Rain = 0
KWE1 221658Z 24008KT 23/16 A3001 RMK A01 T02320162  RH  065%=      5-min Rain = 0
KWE1 221659Z 25008KT 23/16 A3001 RMK A01 T02310163  RH  066%=      5-min Rain = 0
KWE1 221700Z 25007KT 23/16 A3001 RMK A01 T02310163  RH  066%=      5-min Rain = 0
KWE1 221701Z 24005KT 23/16 A3001 RMK A01 T02300159  RH  064%=      5-min Rain = 0
KWE1 221702Z 24005KT 23/16 A3001 RMK A01 T02290161  RH  065%=      5-min Rain = 0
KWE1 221703Z 27008KT 23/16 A3001 RMK A01 T02290162  RH  066%=      5-min Rain = 0
KWE1 221704Z 28010KT 23/16 A3001 RMK A01 T02290159  RH  065%=      5-min Rain = 0
KWE1 221705Z 27007KT 23/16 A3001 RMK A01 T02280159  RH  065%=      5-min Rain = 0
KWE1 221706Z 27004KT 23/16 A3001 RMK A01 T02280162  RH  066%=      5-min Rain = 0
KWE1 221707Z 26005KT 23/16 A3001 RMK A01 T02290164  RH  067%=      5-min Rain = 0
KWE1 221708Z 24005KT 23/16 A3001 RMK A01 T02300162  RH  065%=      5-min Rain = 0
KWE1 221709Z 24005KT 23/16 A3001 RMK A01 T02300162  RH  066%=      5-min Rain = 0
KWE1 221710Z 26006KT 23/16 A3001 RMK A01 T02300161  RH  065%=      5-min Rain = 0
KWE1 221711Z 25006KT 23/16 A30 RMK A01 T02290162  RH  066%=      5-min Rain = 0
KWE1 221712Z 24006KT 23/16 A30 RMK A01 T02290163  RH  066%=      5-min Rain = 0
KWE1 221713Z 24005KT 23/16 A3001 RMK A01 T02300160  RH  065%=      5-min Rain = 0
KWE1 221714Z 25005KT 23/16 A3001 RMK A01 T02300161  RH  065%=      5-min Rain = 0
KWE1 221715Z 26005KT 23/16 A3001 RMK A01 T02290162  RH  066%=      5-min Rain = 0
KWE1 221716Z 24004KT 23/16 A3001 RMK A01 T02300161  RH  065%=      5-min Rain = 0
KWE1 221717Z 22004KT 23/16 A3001 RMK A01 T02290158  RH  064%=      5-min Rain = 0
KWE1 221718Z 22004KT 23/16 A3001 RMK A01 T02290160  RH  065%=      5-min Rain = 0
KWE1 221719Z 22004KT 23/16 A3001 RMK A01 T02290161  RH  066%=      5-min Rain = 0
KWE1 221720Z 22003KT 23/16 A30 RMK A01 T02300158  RH  064%=      5-min Rain = 0
KWE1 221721Z 19003KT 23/16 A30 RMK A01 T02300158  RH  064%=      5-min Rain = 0
KWE1 221722Z 18003KT 23/16 A30 RMK A01 T02310160  RH  064%=      5-min Rain = 0
KWE1 221723Z 19003KT 23/16 A30 RMK A01 T02330159  RH  063%=      5-min Rain = 0
KWE1 221724Z 20004KT 23/16 A30 RMK A01 T02340162  RH  064%=      5-min Rain = 0
KWE1 221725Z 21001KT 24/16 A30 RMK A01 T02350160  RH  063%=      5-min Rain = 0
KWE1 221726Z 21002KT 24/16 A30 RMK A01 T02350160  RH  063%=      5-min Rain = 0
KWE1 221727Z 22004KT 23/16 A30 RMK A01 T02340162  RH  064%=      5-min Rain = 0
KWE1 221728Z 21003KT 23/16 A30 RMK A01 T02340161  RH  063%=      5-min Rain = 0
KWE1 221729Z 20002KT 23/16 A30 RMK A01 T02340161  RH  063%=      5-min Rain = 0
KWE1 221730Z 22004KT 23/16 A30 RMK A01 T02340164  RH  064%=      5-min Rain = 0
KWE1 221731Z 23006KT 24/16 A30 RMK A01 T02350164  RH  064%=      5-min Rain = 0
KWE1 221732Z 23006KT 23/16 A3001 RMK A01 T02340160  RH  063%=      5-min Rain = 0
KWE1 221733Z 22005KT 23/16 A3001 RMK A01 T02330160  RH  064%=      5-min Rain = 0
KWE1 221734Z 21004KT 23/16 A3001 RMK A01 T02320160  RH  064%=      5-min Rain = 0
KWE1 221735Z 23003KT 23/16 A3001 RMK A01 T02320164  RH  065%=      5-min Rain = 0
KWE1 221736Z 28004KT 23/16 A3001 RMK A01 T02340163  RH  065%=      5-min Rain = 0
KWE1 221737Z 28006KT 23/16 A30 RMK A01 T02340163  RH  064%=      5-min Rain = 0
KWE1 221738Z 25004KT 23/16 A3001 RMK A01 T02320163  RH  065%=      5-min Rain = 0
KWE1 221739Z 20006KT 23/16 A30 RMK A01 T02320164  RH  066%=      5-min Rain = 0
KWE1 221740Z 19005KT 23/16 A30 RMK A01 T02330160  RH  064%=      5-min Rain = 0
KWE1 221741Z 24006KT 23/16 A30 RMK A01 T02330161  RH  064%=      5-min Rain = 0
KWE1 221742Z 28003KT 23/17 A30 RMK A01 T02340165  RH  065%=      5-min Rain = 0
KWE1 221743Z 29003KT 24/17 A30 RMK A01 T02350168  RH  066%=      5-min Rain = 0
KWE1 221744Z 31003KT 24/17 A30 RMK A01 T02370167  RH  065%=      5-min Rain = 0
KWE1 221745Z 32002KT 24/16 A30 RMK A01 T02380164  RH  063%=      5-min Rain = 0
KWE1 221746Z 31003KT 24/17 A30 RMK A01 T02390165  RH  064%=      5-min Rain = 0
KWE1 221747Z 30003KT 24/17 A30 RMK A01 T02400167  RH  064%=      5-min Rain = 0
KWE1 221748Z 32004KT 24/16 A30 RMK A01 T02400163  RH  062%=      5-min Rain = 0
KWE1 221749Z 32003KT 24/16 A30 RMK A01 T02380164  RH  063%=      5-min Rain = 0
KWE1 221750Z 31003KT 24/17 A30 RMK A01 T02380168  RH  065%=      5-min Rain = 0
KWE1 221751Z 31004KT 24/16 A30 RMK A01 T02390162  RH  062%=      5-min Rain = 0
KWE1 221752Z 33002KT 24/16 A30 RMK A01 T02370163  RH  063%=      5-min Rain = 0
KWE1 221753Z 34003KT 24/17 A30 RMK A01 T02380166  RH  064%=      5-min Rain = 0
KWE1 221754Z 32001KT 24/17 A30 RMK A01 T02400168  RH  064%=      5-min Rain = 0
KWE1 221755Z 29000KT 24/17 A30 RMK A01 T02420166  RH  062%=      5-min Rain = 0
KWE1 221756Z 22001KT 24/16 A30 RMK A01 T02430161  RH  060%=      5-min Rain = 0
KWE1 221757Z 23003KT 24/17 A30 RMK A01 T02440168  RH  062%=      5-min Rain = 0
KWE1 221758Z 21003KT 25/17 A30 RMK A01 T02460166  RH  061%=      5-min Rain = 0
KWE1 221759Z 20003KT 25/17 A30 RMK A01 T02460165  RH  061%=      5-min Rain = 0
KWE1 221800Z 20002KT 24/16 A30 RMK A01 T02440160  RH  059%=      5-min Rain = 0
KWE1 221801Z 14002KT 24/16 A30 RMK A01 T02430164  RH  061%=      5-min Rain = 0
KWE1 221802Z 10001KT 25/16 A30 RMK A01 T02450163  RH  060%=      5-min Rain = 0
KWE1 221803Z 10000KT 25/16 A30 RMK A01 T02460160  RH  059%=      5-min Rain = 0
KWE1 221804Z 20001KT 25/16 A30 RMK A01 T02470163  RH  060%=      5-min Rain = 0
KWE1 221805Z 20005KT 25/17 A30 RMK A01 T02480165  RH  060%=      5-min Rain = 0
KWE1 221806Z 18002KT 25/16 A30 RMK A01 T02470163  RH  059%=      5-min Rain = 0
KWE1 221807Z 22002KT 25/16 A30 RMK A01 T02460158  RH  058%=      5-min Rain = 0
KWE1 221808Z 23002KT 25/16 A30 RMK A01 T02450158  RH  059%=      5-min Rain = 0
KWE1 221809Z 23002KT 24/16 A30 RMK A01 T02430161  RH  060%=      5-min Rain = 0
KWE1 221810Z 25003KT 24/16 A30 RMK A01 T02430160  RH  060%=      5-min Rain = 0
KWE1 221811Z 23002KT 24/16 A30 RMK A01 T02410158  RH  060%=      5-min Rain = 0
KWE1 221812Z 20002KT 24/17 A30 RMK A01 T02410165  RH  063%=      5-min Rain = 0
KWE1 221813Z 16003KT 24/17 A30 RMK A01 T02440166  RH  062%=      5-min Rain = 0
KWE1 221814Z 13003KT 25/16 A30 RMK A01 T02460162  RH  059%=      5-min Rain = 0
KWE1 221815Z 10004KT 25/16 A30 RMK A01 T02460161  RH  059%=      5-min Rain = 0
KWE1 221816Z 09003KT 24/16 A30 RMK A01 T02440161  RH  060%=      5-min Rain = 0
KWE1 221817Z 06001KT 24/16 A30 RMK A01 T02410160  RH  061%=      5-min Rain = 0
KWE1 221818Z 08001KT 24/16 A30 RMK A01 T02390160  RH  061%=      5-min Rain = 0
KWE1 221819Z 11001KT 24/16 A30 RMK A01 T02390160  RH  061%=      5-min Rain = 0
KWE1 221820Z 17001KT 24/16 A30 RMK A01 T02400161  RH  061%=      5-min Rain = 0
KWE1 221821Z 20002KT 24/16 A30 RMK A01 T02410159  RH  060%=      5-min Rain = 0
KWE1 221822Z 23003KT 24/16 A30 RMK A01 T02410161  RH  061%=      5-min Rain = 0
KWE1 221823Z 22003KT 24/16 A30 RMK A01 T02410161  RH  061%=      5-min Rain = 0
KWE1 221824Z 21003KT 24/16 A30 RMK A01 T02420164  RH  062%=      5-min Rain = 0
KWE1 221825Z 22005KT 24/17 A30 RMK A01 T02430165  RH  062%=      5-min Rain = 0
KWE1 221826Z 21004KT 24/16 A30 RMK A01 T02430164  RH  061%=      5-min Rain = 0
KWE1 221827Z 18005KT 24/16 A30 RMK A01 T02430163  RH  061%=      5-min Rain = 0
KWE1 221828Z 17003KT 24/16 A30 RMK A01 T02430159  RH  060%=      5-min Rain = 0
KWE1 221829Z 15004KT 24/16 A30 RMK A01 T02420161  RH  060%=      5-min Rain = 0
KWE1 221830Z 16003KT 24/16 A30 RMK A01 T02430162  RH  061%=      5-min Rain = 0
KWE1 221831Z 16003KT 24/16 A30 RMK A01 T02440160  RH  060%=      5-min Rain = 0
KWE1 221832Z 17002KT 24/16 A30 RMK A01 T02440159  RH  059%=      5-min Rain = 0
KWE1 221833Z 21000KT 24/16 A30 RMK A01 T02440158  RH  059%=      5-min Rain = 0
KWE1 221834Z 14004KT 24/16 A30 RMK A01 T02430159  RH  059%=      5-min Rain = 0
KWE1 221835Z 13006KT 24/16 A30 RMK A01 T02430162  RH  061%=      5-min Rain = 0
KWE1 221836Z 13004KT 24/16 A2999 RMK A01 T02430162  RH  061%=      5-min Rain = 0
KWE1 221837Z 15004KT 24/16 A2999 RMK A01 T02430163  RH  061%=      5-min Rain = 0
KWE1 221838Z 15004KT 24/16 A2999 RMK A01 T02430162  RH  061%=      5-min Rain = 0
KWE1 221839Z 15004KT 24/16 A2999 RMK A01 T02440163  RH  061%=      5-min Rain = 0
KWE1 221840Z 13003KT 24/16 A2999 RMK A01 T02440163  RH  061%=      5-min Rain = 0
KWE1 221841Z 17003KT 25/16 A2999 RMK A01 T02450164  RH  060%=      5-min Rain = 0
KWE1 221842Z 16002KT 25/16 A2999 RMK A01 T02450164  RH  061%=      5-min Rain = 0
KWE1 221843Z 13002KT 25/16 A2999 RMK A01 T02450162  RH  060%=      5-min Rain = 0
KWE1 221844Z 16002KT 25/16 A2999 RMK A01 T02450162  RH  060%=      5-min Rain = 0
KWE1 221845Z 16006KT 25/16 A2999 RMK A01 T02460164  RH  060%=      5-min Rain = 0
KWE1 221846Z 17005KT 25/16 A2999 RMK A01 T02460162  RH  060%=      5-min Rain = 0
KWE1 221847Z 16002KT 25/16 A2999 RMK A01 T02450161  RH  060%=      5-min Rain = 0
KWE1 221848Z 16004KT 24/16 A2999 RMK A01 T02440162  RH  060%=      5-min Rain = 0
KWE1 221849Z 16005KT 24/16 A2999 RMK A01 T02440162  RH  060%=      5-min Rain = 0
KWE1 221850Z 15005KT 24/16 A2999 RMK A01 T02440164  RH  061%=      5-min Rain = 0
KWE1 221851Z 15004KT 25/17 A2999 RMK A01 T02450165  RH  061%=      5-min Rain = 0
KWE1 221852Z 17004KT 25/16 A2999 RMK A01 T02450162  RH  060%=      5-min Rain = 0
KWE1 221853Z 15003KT 24/16 A2999 RMK A01 T02440161  RH  060%=      5-min Rain = 0
KWE1 221854Z 14003KT 24/16 A2999 RMK A01 T02420161  RH  060%=      5-min Rain = 0
KWE1 221855Z 18005KT 24/16 A2999 RMK A01 T02420163  RH  061%=      5-min Rain = 0
KWE1 221856Z 19004KT 24/16 A2999 RMK A01 T02420161  RH  061%=      5-min Rain = 0
KWE1 221857Z 17004KT 24/16 A2999 RMK A01 T02410163  RH  062%=      5-min Rain = 0
KWE1 221858Z 14005KT 24/16 A2999 RMK A01 T02420164  RH  062%=      5-min Rain = 0
KWE1 221859Z 14004KT 24/16 A2999 RMK A01 T02420163  RH  061%=      5-min Rain = 0
KWE1 221900Z 16005KT 24/16 A2999 RMK A01 T02420164  RH  062%=      5-min Rain = 0
KWE1 221901Z 13005KT 24/17 A2999 RMK A01 T02420165  RH  062%=      5-min Rain = 0
KWE1 221902Z 12005KT 24/16 A2999 RMK A01 T02420163  RH  061%=      5-min Rain = 0
KWE1 221903Z 14005KT 24/17 A2999 RMK A01 T02420167  RH  063%=      5-min Rain = 0
KWE1 221904Z 14003KT 24/17 A2999 RMK A01 T02430167  RH  063%=      5-min Rain = 0
KWE1 221905Z 13004KT 24/17 A2999 RMK A01 T02440165  RH  062%=      5-min Rain = 0
KWE1 221906Z 11004KT 24/17 A2999 RMK A01 T02440167  RH  062%=      5-min Rain = 0
KWE1 221907Z 10005KT 24/17 A2999 RMK A01 T02430168  RH  063%=      5-min Rain = 0
KWE1 221908Z 12006KT 24/17 A2999 RMK A01 T02420168  RH  063%=      5-min Rain = 0
KWE1 221909Z 14006KT 24/17 A2999 RMK A01 T02410165  RH  063%=      5-min Rain = 0
KWE1 221910Z 15006KT 24/16 A2999 RMK A01 T02400164  RH  063%=      5-min Rain = 0
KWE1 221911Z 12005KT 24/17 A2999 RMK A01 T02400166  RH  063%=      5-min Rain = 0
KWE1 221912Z 12006KT 24/17 A2999 RMK A01 T02400165  RH  063%=      5-min Rain = 0
KWE1 221913Z 12005KT 24/16 A2999 RMK A01 T02410164  RH  062%=      5-min Rain = 0
KWE1 221914Z 10005KT 24/17 A2999 RMK A01 T02410167  RH  064%=      5-min Rain = 0
KWE1 221915Z 12006KT 24/17 A2999 RMK A01 T02400168  RH  064%=      5-min Rain = 0
KWE1 221916Z 12006KT 24/17 A2999 RMK A01 T02400167  RH  064%=      5-min Rain = 0
KWE1 221917Z 11006KT 24/17 A2999 RMK A01 T02400167  RH  064%=      5-min Rain = 0
KWE1 221918Z 12005KT 24/17 A2999 RMK A01 T02400167  RH  064%=      5-min Rain = 0
KWE1 221919Z 15007KT 24/17 A2999 RMK A01 T02400167  RH  063%=      5-min Rain = 0
KWE1 221920Z 14007KT 24/16 A2999 RMK A01 T02420163  RH  062%=      5-min Rain = 0
KWE1 221921Z 14007KT 24/16 A2999 RMK A01 T02420163  RH  062%=      5-min Rain = 0
KWE1 221922Z 14006KT 24/16 A2999 RMK A01 T02420164  RH  062%=      5-min Rain = 0
KWE1 221923Z 14006KT 24/16 A2999 RMK A01 T02420164  RH  062%=      5-min Rain = 0
KWE1 221924Z 14006KT 24/16 A2999 RMK A01 T02420164  RH  062%=      5-min Rain = 0
KWE1 221925Z 13007KT 24/17 A2999 RMK A01 T02420165  RH  062%=      5-min Rain = 0
KWE1 221926Z 12006KT 24/16 A2999 RMK A01 T02430164  RH  062%=      5-min Rain = 0
KWE1 221927Z 12006KT 24/17 A2999 RMK A01 T02420165  RH  062%=      5-min Rain = 0
KWE1 221928Z 14007KT 24/16 A2999 RMK A01 T02410164  RH  062%=      5-min Rain = 0
KWE1 221929Z 14006KT 24/16 A2999 RMK A01 T02410164  RH  062%=      5-min Rain = 0
KWE1 221930Z 14005KT 24/16 A2999 RMK A01 T02420163  RH  061%=      5-min Rain = 0
KWE1 221931Z 13007KT 24/16 A2999 RMK A01 T02420164  RH  061%=      5-min Rain = 0
KWE1 221932Z 14006KT 24/16 A2999 RMK A01 T02430164  RH  061%=      5-min Rain = 0
KWE1 221933Z 14003KT 24/16 A2999 RMK A01 T02440162  RH  060%=      5-min Rain = 0
KWE1 221934Z 17003KT 25/17 A2999 RMK A01 T02450166  RH  061%=      5-min Rain = 0
KWE1 221935Z 18004KT 25/16 A2999 RMK A01 T02460164  RH  060%=      5-min Rain = 0
KWE1 221936Z 15005KT 25/17 A2999 RMK A01 T02460165  RH  061%=      5-min Rain = 0
KWE1 221937Z 15007KT 25/17 A2999 RMK A01 T02460165  RH  060%=      5-min Rain = 0
KWE1 221938Z 14007KT 25/16 A2999 RMK A01 T02460163  RH  060%=      5-min Rain = 0
KWE1 221939Z 15006KT 25/16 A2999 RMK A01 T02460164  RH  060%=      5-min Rain = 0
KWE1 221940Z 13005KT 25/17 A2998 RMK A01 T02460165  RH  061%=      5-min Rain = 0
KWE1 221941Z 13005KT 25/16 A2998 RMK A01 T02460164  RH  060%=      5-min Rain = 0
KWE1 221942Z 14004KT 25/16 A2998 RMK A01 T02460164  RH  060%=      5-min Rain = 0
KWE1 221943Z 16004KT 25/17 A2998 RMK A01 T02460166  RH  061%=      5-min Rain = 0
KWE1 221944Z 16006KT 25/16 A2998 RMK A01 T02470164  RH  060%=      5-min Rain = 0
KWE1 221945Z 16004KT 25/16 A2998 RMK A01 T02470162  RH  059%=      5-min Rain = 0
KWE1 221946Z 14003KT 25/16 A2998 RMK A01 T02460164  RH  060%=      5-min Rain = 0
KWE1 221947Z 12005KT 25/16 A2998 RMK A01 T02460164  RH  060%=      5-min Rain = 0
KWE1 221948Z 13005KT 25/16 A2998 RMK A01 T02470163  RH  060%=      5-min Rain = 0
KWE1 221949Z 13003KT 25/16 A2998 RMK A01 T02460162  RH  059%=      5-min Rain = 0
KWE1 221950Z 12005KT 25/16 A2998 RMK A01 T02450163  RH  060%=      5-min Rain = 0
KWE1 221951Z 12003KT 25/16 A2999 RMK A01 T02450162  RH  060%=      5-min Rain = 0
KWE1 221952Z 11003KT 24/16 A2999 RMK A01 T02440164  RH  061%=      5-min Rain = 0
KWE1 221953Z 10003KT 24/16 A2999 RMK A01 T02440164  RH  061%=      5-min Rain = 0
KWE1 221954Z 10005KT 24/16 A2999 RMK A01 T02440163  RH  061%=      5-min Rain = 0
KWE1 221955Z 12007KT 24/17 A2999 RMK A01 T02430166  RH  062%=      5-min Rain = 0
KWE1 221956Z 14007KT 24/17 A2999 RMK A01 T02430165  RH  062%=      5-min Rain = 0
KWE1 221957Z 13005KT 24/16 A2999 RMK A01 T02440163  RH  061%=      5-min Rain = 0
KWE1 221958Z 13006KT 24/16 A2999 RMK A01 T02440164  RH  061%=      5-min Rain = 0
KWE1 221959Z 13005KT 25/16 A2999 RMK A01 T02450163  RH  060%=      5-min Rain = 0
KWE1 222000Z 15005KT 24/16 A2999 RMK A01 T02440163  RH  061%=      5-min Rain = 0
KWE1 222001Z 15005KT 24/16 A2999 RMK A01 T02440162  RH  060%=      5-min Rain = 0
KWE1 222002Z 15004KT 24/16 A2999 RMK A01 T02440161  RH  060%=      5-min Rain = 0
KWE1 222003Z 15003KT 24/16 A2999 RMK A01 T02440161  RH  060%=      5-min Rain = 0
KWE1 222004Z 15002KT 24/16 A2999 RMK A01 T02440160  RH  060%=      5-min Rain = 0
KWE1 222005Z 14004KT 24/16 A2999 RMK A01 T02430162  RH  060%=      5-min Rain = 0
KWE1 222006Z 14004KT 24/16 A2999 RMK A01 T02430162  RH  061%=      5-min Rain = 0
KWE1 222007Z 15004KT 24/16 A2999 RMK A01 T02430162  RH  061%=      5-min Rain = 0
KWE1 222008Z 14006KT 24/16 A2999 RMK A01 T02430163  RH  061%=      5-min Rain = 0
KWE1 222009Z 15007KT 24/16 A2999 RMK A01 T02430163  RH  061%=      5-min Rain = 0
KWE1 222010Z 15005KT 24/16 A2999 RMK A01 T02430160  RH  060%=      5-min Rain = 0
KWE1 222011Z 17004KT 24/16 A2999 RMK A01 T02430161  RH  060%=      5-min Rain = 0
KWE1 222012Z 17006KT 24/16 A2999 RMK A01 T02430162  RH  060%=      5-min Rain = 0
KWE1 222013Z 16005KT 24/16 A2999 RMK A01 T02440160  RH  060%=      5-min Rain = 0
KWE1 222014Z 16004KT 24/16 A2999 RMK A01 T02440162  RH  060%=      5-min Rain = 0
KWE1 222015Z 15003KT 24/16 A2999 RMK A01 T02440162  RH  060%=      5-min Rain = 0
KWE1 222016Z 15004KT 25/16 A2999 RMK A01 T02450163  RH  060%=      5-min Rain = 0
KWE1 222017Z 15004KT 25/16 A2999 RMK A01 T02450163  RH  060%=      5-min Rain = 0
KWE1 222018Z 14003KT 25/16 A2999 RMK A01 T02460163  RH  060%=      5-min Rain = 0
KWE1 222019Z 15002KT 25/16 A2999 RMK A01 T02460163  RH  060%=      5-min Rain = 0
KWE1 222020Z 13003KT 25/16 A2999 RMK A01 T02460163  RH  060%=      5-min Rain = 0
KWE1 222021Z 13004KT 25/16 A2999 RMK A01 T02460164  RH  060%=      5-min Rain = 0
KWE1 222022Z 13005KT 25/16 A2999 RMK A01 T02460164  RH  060%=      5-min Rain = 0
KWE1 222023Z 13004KT 25/16 A2999 RMK A01 T02450164  RH  060%=      5-min Rain = 0
KWE1 222024Z 17005KT 25/16 A2999 RMK A01 T02460163  RH  060%=      5-min Rain = 0
KWE1 222025Z 18005KT 25/16 A2999 RMK A01 T02450161  RH  059%=      5-min Rain = 0
KWE1 222026Z 18006KT 25/16 A2999 RMK A01 T02450161  RH  059%=      5-min Rain = 0
KWE1 222027Z 18004KT 24/16 A2999 RMK A01 T02440159  RH  059%=      5-min Rain = 0
KWE1 222028Z 15004KT 24/16 A2999 RMK A01 T02430160  RH  059%=      5-min Rain = 0
KWE1 222029Z 14002KT 24/16 A2999 RMK A01 T02430160  RH  060%=      5-min Rain = 0
KWE1 222030Z 14002KT 24/16 A2999 RMK A01 T02430160  RH  060%=      5-min Rain = 0
KWE1 222031Z 12003KT 24/16 A2999 RMK A01 T02440160  RH  060%=      5-min Rain = 0
KWE1 222032Z 12005KT 25/16 A2999 RMK A01 T02450162  RH  060%=      5-min Rain = 0
KWE1 222033Z 12006KT 25/17 A2999 RMK A01 T02450165  RH  061%=      5-min Rain = 0
KWE1 222034Z 13005KT 24/17 A2999 RMK A01 T02440165  RH  061%=      5-min Rain = 0
KWE1 222035Z 16005KT 24/17 A2999 RMK A01 T02440165  RH  061%=      5-min Rain = 0
KWE1 222036Z 17006KT 25/16 A2999 RMK A01 T02450163  RH  060%=      5-min Rain = 0
KWE1 222037Z 17006KT 25/16 A2999 RMK A01 T02450161  RH  060%=      5-min Rain = 0
KWE1 222038Z 16003KT 25/16 A2999 RMK A01 T02450161  RH  059%=      5-min Rain = 0
KWE1 222039Z 13004KT 24/17 A2999 RMK A01 T02440165  RH  061%=      5-min Rain = 0
KWE1 222040Z 12005KT 24/16 A2999 RMK A01 T02440163  RH  060%=      5-min Rain = 0
KWE1 222041Z 14004KT 24/16 A2999 RMK A01 T02440163  RH  060%=      5-min Rain = 0
KWE1 222042Z 13004KT 24/17 A2998 RMK A01 T02440165  RH  061%=      5-min Rain = 0
KWE1 222043Z 13004KT 25/17 A2998 RMK A01 T02450165  RH  061%=      5-min Rain = 0
KWE1 222044Z 14005KT 25/16 A2998 RMK A01 T02450164  RH  061%=      5-min Rain = 0
KWE1 222045Z 12004KT 25/16 A2998 RMK A01 T02450163  RH  060%=      5-min Rain = 0
KWE1 222046Z 12004KT 25/17 A2998 RMK A01 T02450166  RH  061%=      5-min Rain = 0
KWE1 222047Z 11004KT 25/17 A2999 RMK A01 T02450165  RH  061%=      5-min Rain = 0
KWE1 222048Z 12005KT 24/17 A2998 RMK A01 T02440166  RH  061%=      5-min Rain = 0
KWE1 222049Z 13005KT 24/17 A2998 RMK A01 T02440166  RH  062%=      5-min Rain = 0
KWE1 222050Z 12006KT 24/17 A2998 RMK A01 T02440165  RH  062%=      5-min Rain = 0
KWE1 222051Z 11007KT 24/17 A2998 RMK A01 T02430167  RH  062%=      5-min Rain = 0
KWE1 222052Z 12006KT 24/17 A2998 RMK A01 T02420165  RH  062%=      5-min Rain = 0
KWE1 222053Z 13007KT 24/17 A2998 RMK A01 T02410168  RH  064%=      5-min Rain = 0
KWE1 222054Z 11007KT 24/17 A2998 RMK A01 T02410172  RH  065%=      5-min Rain = 0
KWE1 222055Z 11008KT 24/17 A2998 RMK A01 T02400172  RH  066%=      5-min Rain = 0
KWE1 222056Z 11007KT 24/17 A2998 RMK A01 T02390173  RH  067%=      5-min Rain = 0
KWE1 222057Z 11008KT 24/18 A2998 RMK A01 T02380175  RH  068%=      5-min Rain = 0
KWE1 222058Z 11008KT 24/17 A2998 RMK A01 T02380173  RH  067%=      5-min Rain = 0
KWE1 222059Z 10008KT 24/17 A2998 RMK A01 T02380174  RH  067%=      5-min Rain = 0
KWE1 222100Z 11008KT 24/17 A2998 RMK A01 T02380173  RH  067%=      5-min Rain = 0
KWE1 222101Z 11007KT 24/17 A2998 RMK A01 T02380172  RH  066%=      5-min Rain = 0
KWE1 222102Z 11007KT 24/18 A2998 RMK A01 T02380175  RH  068%=      5-min Rain = 0
KWE1 222103Z 10007KT 24/17 A2998 RMK A01 T02380174  RH  068%=      5-min Rain = 0
KWE1 222104Z 09008KT 24/18 A2997 RMK A01 T02380176  RH  068%=      5-min Rain = 0
KWE1 222105Z 09009KT 24/17 A2997 RMK A01 T02380173  RH  067%=      5-min Rain = 0
KWE1 222106Z 09009KT 24/18 A2997 RMK A01 T02380175  RH  067%=      5-min Rain = 0
KWE1 222107Z 09008KT 24/18 A2997 RMK A01 T02380177  RH  068%=      5-min Rain = 0
KWE1 222108Z 08007KT 24/18 A2997 RMK A01 T02390177  RH  068%=      5-min Rain = 0
KWE1 222109Z 09008KT 24/18 A2997 RMK A01 T02400179  RH  069%=      5-min Rain = 0
KWE1 222110Z 09009KT 24/18 A2997 RMK A01 T02400176  RH  067%=      5-min Rain = 0
KWE1 222111Z 09008KT 24/18 A2997 RMK A01 T02400178  RH  068%=      5-min Rain = 0
KWE1 222112Z 09007KT 24/18 A2997 RMK A01 T02400178  RH  068%=      5-min Rain = 0
KWE1 222113Z 09008KT 24/18 A2997 RMK A01 T02400178  RH  068%=      5-min Rain = 0
KWE1 222114Z 10009KT 24/18 A2997 RMK A01 T02400175  RH  067%=      5-min Rain = 0
KWE1 222115Z 11009KT 24/18 A2997 RMK A01 T02400176  RH  067%=      5-min Rain = 0
KWE1 222116Z 11008KT 24/18 A2997 RMK A01 T02400176  RH  067%=      5-min Rain = 0
KWE1 222117Z 10008KT 24/18 A2997 RMK A01 T02400178  RH  068%=      5-min Rain = 0
KWE1 222118Z 10010KT 24/18 A2997 RMK A01 T02400178  RH  068%=      5-min Rain = 0
KWE1 222119Z 10009KT 24/18 A2997 RMK A01 T02390177  RH  068%=      5-min Rain = 0
KWE1 222120Z 10009KT 24/18 A2997 RMK A01 T02390177  RH  069%=      5-min Rain = 0
KWE1 222121Z 09009KT 24/18 A2997 RMK A01 T02380176  RH  068%=      5-min Rain = 0
KWE1 222122Z 09010KT 24/18 A2997 RMK A01 T02370176  RH  069%=      5-min Rain = 0
KWE1 222123Z 09008KT 24/18 A2998 RMK A01 T02360176  RH  069%=      5-min Rain = 0
KWE1 222124Z 10008KT 24/18 A2997 RMK A01 T02360178  RH  070%=      5-min Rain = 0
KWE1 222125Z 09011KT 24/18 A2998 RMK A01 T02350177  RH  070%=      5-min Rain = 0
KWE1 222126Z 09009KT 23/18 A2998 RMK A01 T02340176  RH  069%=      5-min Rain = 0
KWE1 222127Z 11008KT 23/18 A2998 RMK A01 T02340177  RH  070%=      5-min Rain = 0
KWE1 222128Z 11008KT 23/18 A2998 RMK A01 T02340176  RH  070%=      5-min Rain = 0
KWE1 222129Z 10007KT 23/18 A2998 RMK A01 T02340176  RH  070%=      5-min Rain = 0
KWE1 222130Z 10007KT 23/18 A2998 RMK A01 T02340178  RH  071%=      5-min Rain = 0
KWE1 222131Z 10007KT 23/18 A2998 RMK A01 T02340176  RH  070%=      5-min Rain = 0
KWE1 222132Z 09009KT 23/18 A2998 RMK A01 T02330175  RH  070%=      5-min Rain = 0
KWE1 222133Z 09009KT 23/18 A2997 RMK A01 T02330175  RH  070%=      5-min Rain = 0
KWE1 222134Z 10007KT 23/18 A2997 RMK A01 T02330177  RH  070%=      5-min Rain = 0
KWE1 222135Z 10008KT 23/18 A2997 RMK A01 T02330177  RH  071%=      5-min Rain = 0
KWE1 222136Z 09007KT 23/18 A2997 RMK A01 T02340177  RH  070%=      5-min Rain = 0
KWE1 222137Z 08009KT 23/18 A2997 RMK A01 T02340177  RH  070%=      5-min Rain = 0
KWE1 222138Z 09011KT 23/18 A2997 RMK A01 T02340176  RH  070%=      5-min Rain = 0
KWE1 222139Z 08008KT 23/18 A2997 RMK A01 T02330175  RH  070%=      5-min Rain = 0
KWE1 222140Z 09009KT 23/18 A2997 RMK A01 T02330175  RH  070%=      5-min Rain = 0
KWE1 222141Z 09008KT 23/17 A2997 RMK A01 T02330174  RH  070%=      5-min Rain = 0
KWE1 222142Z 09008KT 23/18 A2997 RMK A01 T02320175  RH  070%=      5-min Rain = 0
KWE1 222143Z 08008KT 23/18 A2997 RMK A01 T02320176  RH  070%=      5-min Rain = 0
KWE1 222144Z 08008KT 23/17 A2997 RMK A01 T02320174  RH  070%=      5-min Rain = 0
KWE1 222145Z 09007KT 23/18 A2997 RMK A01 T02320176  RH  071%=      5-min Rain = 0
KWE1 222146Z 10009KT 23/18 A2997 RMK A01 T02320176  RH  070%=      5-min Rain = 0
KWE1 222147Z 09009KT 23/17 A2997 RMK A01 T02330174  RH  070%=      5-min Rain = 0
KWE1 222148Z 09009KT 23/18 A2997 RMK A01 T02320175  RH  070%=      5-min Rain = 0
KWE1 222149Z 10009KT 23/17 A2997 RMK A01 T02320174  RH  070%=      5-min Rain = 0
KWE1 222150Z 09009KT 23/18 A2997 RMK A01 T02320175  RH  070%=      5-min Rain = 0
KWE1 222151Z 10009KT 23/17 A2997 RMK A01 T02320174  RH  070%=      5-min Rain = 0
KWE1 222152Z 09009KT 23/18 A2997 RMK A01 T02320175  RH  070%=      5-min Rain = 0
KWE1 222153Z 09008KT 23/17 A2997 RMK A01 T02320174  RH  070%=      5-min Rain = 0
KWE1 222154Z 10009KT 23/17 A2997 RMK A01 T02320174  RH  070%=      5-min Rain = 0
KWE1 222155Z 09010KT 23/17 A2997 RMK A01 T02320173  RH  070%=      5-min Rain = 0
KWE1 222156Z 09008KT 23/18 A2997 RMK A01 T02320175  RH  070%=      5-min Rain = 0
KWE1 222157Z 10009KT 23/17 A2997 RMK A01 T02320174  RH  070%=      5-min Rain = 0
KWE1 222158Z 10007KT 23/17 A2997 RMK A01 T02310174  RH  070%=      5-min Rain = 0
KWE1 222159Z 09008KT 23/18 A2997 RMK A01 T02310175  RH  070%=      5-min Rain = 0
KWE1 222200Z 09009KT 23/17 A2997 RMK A01 T02310173  RH  070%=      5-min Rain = 0
KWE1 222201Z 09009KT 23/17 A2997 RMK A01 T02310173  RH  070%=      5-min Rain = 0
KWE1 222202Z 09008KT 23/17 A2997 RMK A01 T02320174  RH  070%=      5-min Rain = 0
KWE1 222203Z 09009KT 23/17 A2997 RMK A01 T02330174  RH  070%=      5-min Rain = 0
KWE1 222204Z 08009KT 23/17 A2997 RMK A01 T02330173  RH  069%=      5-min Rain = 0
KWE1 222205Z 09009KT 23/18 A2997 RMK A01 T02340175  RH  069%=      5-min Rain = 0
KWE1 222206Z 09007KT 23/18 A2997 RMK A01 T02340176  RH  070%=      5-min Rain = 0
KWE1 222207Z 09008KT 24/18 A2997 RMK A01 T02350176  RH  070%=      5-min Rain = 0
KWE1 222208Z 10010KT 24/18 A2997 RMK A01 T02360175  RH  069%=      5-min Rain = 0
KWE1 222209Z 09008KT 24/17 A2997 RMK A01 T02350174  RH  068%=      5-min Rain = 0
KWE1 222210Z 09007KT 24/18 A2997 RMK A01 T02350176  RH  069%=      5-min Rain = 0
KWE1 222211Z 09008KT 24/17 A2997 RMK A01 T02350174  RH  069%=      5-min Rain = 0
KWE1 222212Z 09009KT 24/17 A2997 RMK A01 T02350173  RH  068%=      5-min Rain = 0
KWE1 222213Z 09009KT 23/17 A2997 RMK A01 T02340172  RH  068%=      5-min Rain = 0
KWE1 222214Z 09009KT 23/17 A2997 RMK A01 T02340173  RH  069%=      5-min Rain = 0
KWE1 222215Z 09008KT 23/17 A2997 RMK A01 T02330174  RH  069%=      5-min Rain = 0
KWE1 222216Z 09008KT 23/17 A2998 RMK A01 T02320173  RH  069%=      5-min Rain = 0
KWE1 222217Z 09008KT 23/17 A2998 RMK A01 T02320174  RH  070%=      5-min Rain = 0
KWE1 222218Z 09009KT 23/17 A2998 RMK A01 T02310172  RH  069%=      5-min Rain = 0
KWE1 222219Z 09008KT 23/17 A2998 RMK A01 T02310173  RH  070%=      5-min Rain = 0
KWE1 222220Z 09008KT 23/17 A2998 RMK A01 T02310172  RH  069%=      5-min Rain = 0
KWE1 222221Z 09008KT 23/17 A2998 RMK A01 T02300173  RH  070%=      5-min Rain = 0
KWE1 222222Z 10008KT 23/17 A2998 RMK A01 T02300172  RH  070%=      5-min Rain = 0
KWE1 222223Z 11006KT 23/17 A2998 RMK A01 T02290171  RH  070%=      5-min Rain = 0
KWE1 222224Z 11006KT 23/17 A2998 RMK A01 T02290172  RH  070%=      5-min Rain = 0
KWE1 222225Z 11005KT 23/17 A2998 RMK A01 T02300174  RH  071%=      5-min Rain = 0
KWE1 222226Z 11004KT 23/18 A2998 RMK A01 T02300175  RH  071%=      5-min Rain = 0
KWE1 222227Z 09006KT 23/18 A2998 RMK A01 T02300176  RH  072%=      5-min Rain = 0
KWE1 222228Z 11006KT 23/18 A2998 RMK A01 T02300175  RH  071%=      5-min Rain = 0
KWE1 222229Z 11007KT 23/17 A2997 RMK A01 T02290174  RH  071%=      5-min Rain = 0
KWE1 222230Z 12007KT 23/17 A2997 RMK A01 T02300173  RH  071%=      5-min Rain = 0
KWE1 222231Z 12007KT 23/17 A2997 RMK A01 T02300172  RH  070%=      5-min Rain = 0
KWE1 222232Z 12006KT 23/17 A2997 RMK A01 T02310172  RH  069%=      5-min Rain = 0
KWE1 222233Z 12006KT 23/17 A2997 RMK A01 T02310172  RH  069%=      5-min Rain = 0
KWE1 222234Z 11005KT 23/17 A2997 RMK A01 T02320173  RH  070%=      5-min Rain = 0
KWE1 222235Z 12006KT 23/17 A2997 RMK A01 T02320173  RH  070%=      5-min Rain = 0
KWE1 222236Z 12008KT 23/17 A2997 RMK A01 T02320171  RH  068%=      5-min Rain = 0
KWE1 222237Z 11007KT 23/17 A2997 RMK A01 T02320170  RH  068%=      5-min Rain = 0
KWE1 222238Z 11006KT 23/17 A2997 RMK A01 T02330171  RH  068%=      5-min Rain = 0
KWE1 222239Z 11006KT 23/17 A2997 RMK A01 T02330172  RH  069%=      5-min Rain = 0
KWE1 222240Z 11006KT 23/17 A2997 RMK A01 T02330171  RH  068%=      5-min Rain = 0
KWE1 222241Z 10006KT 23/17 A2997 RMK A01 T02330173  RH  069%=      5-min Rain = 0
KWE1 222242Z 10006KT 23/18 A2998 RMK A01 T02330175  RH  070%=      5-min Rain = 0
KWE1 222243Z 10006KT 23/18 A2998 RMK A01 T02320176  RH  070%=      5-min Rain = 0
KWE1 222244Z 10007KT 23/18 A2998 RMK A01 T02320175  RH  070%=      5-min Rain = 0
KWE1 222245Z 11005KT 23/18 A2998 RMK A01 T02320176  RH  071%=      5-min Rain = 0
KWE1 222246Z 10006KT 23/18 A2998 RMK A01 T02310176  RH  071%=      5-min Rain = 0
KWE1 222247Z 11006KT 23/18 A2998 RMK A01 T02310175  RH  071%=      5-min Rain = 0
KWE1 222248Z 11006KT 23/18 A2998 RMK A01 T02310175  RH  071%=      5-min Rain = 0
KWE1 222249Z 11006KT 23/18 A2998 RMK A01 T02310175  RH  071%=      5-min Rain = 0
KWE1 222250Z 11006KT 23/17 A2998 RMK A01 T02300174  RH  070%=      5-min Rain = 0
KWE1 222251Z 11004KT 23/17 A2998 RMK A01 T02300174  RH  071%=      5-min Rain = 0
KWE1 222252Z 11006KT 23/18 A2998 RMK A01 T02310175  RH  071%=      5-min Rain = 0
KWE1 222253Z 10005KT 23/17 A2998 RMK A01 T02310173  RH  070%=      5-min Rain = 0
KWE1 222254Z 12006KT 23/18 A2998 RMK A01 T02310175  RH  071%=      5-min Rain = 0
KWE1 222255Z 11005KT 23/17 A2998 RMK A01 T02300173  RH  070%=      5-min Rain = 0
KWE1 222256Z 10005KT 23/17 A2998 RMK A01 T02300173  RH  070%=      5-min Rain = 0
KWE1 222257Z 10005KT 23/18 A2998 RMK A01 T02300175  RH  071%=      5-min Rain = 0
KWE1 222258Z 11005KT 23/18 A2998 RMK A01 T02290176  RH  072%=      5-min Rain = 0
KWE1 222259Z 12007KT 23/17 A2998 RMK A01 T02290174  RH  071%=      5-min Rain = 0
KWE1 222300Z 11005KT 23/17 A2998 RMK A01 T02280171  RH  070%=      5-min Rain = 0
KWE1 222301Z 11006KT 23/17 A2998 RMK A01 T02290173  RH  071%=      5-min Rain = 0
KWE1 222302Z 11005KT 23/17 A2998 RMK A01 T02290172  RH  070%=      5-min Rain = 0
KWE1 222303Z 12004KT 23/17 A2998 RMK A01 T02290174  RH  071%=      5-min Rain = 0
KWE1 222304Z 12007KT 23/17 A2998 RMK A01 T02290171  RH  070%=      5-min Rain = 0
KWE1 222305Z 11005KT 23/17 A2998 RMK A01 T02290172  RH  070%=      5-min Rain = 0
KWE1 222306Z 11007KT 23/17 A2998 RMK A01 T02280170  RH  069%=      5-min Rain = 0
KWE1 222307Z 10006KT 23/17 A2998 RMK A01 T02290171  RH  070%=      5-min Rain = 0
KWE1 222308Z 11007KT 23/17 A2998 RMK A01 T02290170  RH  070%=      5-min Rain = 0
KWE1 222309Z 10007KT 23/17 A2998 RMK A01 T02290171  RH  070%=      5-min Rain = 0
KWE1 222310Z 11007KT 23/17 A2998 RMK A01 T02290170  RH  069%=      5-min Rain = 0
KWE1 222311Z 10007KT 23/17 A2998 RMK A01 T02290169  RH  069%=      5-min Rain = 0
KWE1 222312Z 10008KT 23/17 A2998 RMK A01 T02290169  RH  069%=      5-min Rain = 0
KWE1 222313Z 10007KT 23/17 A2998 RMK A01 T02290169  RH  069%=      5-min Rain = 0
KWE1 222314Z 10005KT 23/17 A2998 RMK A01 T02290170  RH  070%=      5-min Rain = 0
KWE1 222315Z 11006KT 23/17 A2998 RMK A01 T02280171  RH  070%=      5-min Rain = 0
KWE1 222316Z 10005KT 23/17 A2998 RMK A01 T02280170  RH  070%=      5-min Rain = 0
KWE1 222317Z 10006KT 23/17 A2998 RMK A01 T02270171  RH  070%=      5-min Rain = 0
KWE1 222318Z 10006KT 23/17 A2998 RMK A01 T02270170  RH  070%=      5-min Rain = 0
KWE1 222319Z 10005KT 23/17 A2998 RMK A01 T02270170  RH  070%=      5-min Rain = 0
KWE1 222320Z 09007KT 23/17 A2998 RMK A01 T02270170  RH  070%=      5-min Rain = 0
KWE1 222321Z 10006KT 23/17 A2998 RMK A01 T02270169  RH  070%=      5-min Rain = 0
KWE1 222322Z 10005KT 23/17 A2998 RMK A01 T02270168  RH  069%=      5-min Rain = 0
KWE1 222323Z 10004KT 23/17 A2998 RMK A01 T02270170  RH  070%=      5-min Rain = 0
KWE1 222324Z 11005KT 23/17 A2998 RMK A01 T02270170  RH  070%=      5-min Rain = 0
KWE1 222325Z 10005KT 23/17 A2998 RMK A01 T02270170  RH  070%=      5-min Rain = 0
KWE1 222326Z 10006KT 23/17 A2998 RMK A01 T02270169  RH  070%=      5-min Rain = 0
KWE1 222327Z 10006KT 23/17 A2998 RMK A01 T02270168  RH  070%=      5-min Rain = 0
KWE1 222328Z 09005KT 23/17 A2998 RMK A01 T02270169  RH  070%=      5-min Rain = 0
KWE1 222329Z 08005KT 23/17 A2998 RMK A01 T02270172  RH  071%=      5-min Rain = 0
KWE1 222330Z 09005KT 23/17 A2998 RMK A01 T02270173  RH  071%=      5-min Rain = 0
KWE1 222331Z 09004KT 23/17 A2998 RMK A01 T02260173  RH  072%=      5-min Rain = 0
KWE1 222332Z 09004KT 23/17 A2998 RMK A01 T02250174  RH  073%=      5-min Rain = 0
KWE1 222333Z 10005KT 23/17 A2998 RMK A01 T02250174  RH  073%=      5-min Rain = 0
KWE1 222334Z 10006KT 22/17 A2998 RMK A01 T02240173  RH  072%=      5-min Rain = 0
KWE1 222335Z 10005KT 22/17 A2998 RMK A01 T02240172  RH  072%=      5-min Rain = 0
KWE1 222336Z 09006KT 23/17 A2998 RMK A01 T02250173  RH  073%=      5-min Rain = 0
KWE1 222337Z 09006KT 22/17 A2998 RMK A01 T02240172  RH  072%=      5-min Rain = 0
KWE1 222338Z 09006KT 22/17 A2998 RMK A01 T02240172  RH  072%=      5-min Rain = 0
KWE1 222339Z 09007KT 23/17 A2998 RMK A01 T02250172  RH  072%=      5-min Rain = 0
KWE1 222340Z 09006KT 22/17 A2998 RMK A01 T02240171  RH  072%=      5-min Rain = 0
KWE1 222341Z 09006KT 23/17 A2998 RMK A01 T02250172  RH  072%=      5-min Rain = 0
KWE1 222342Z 09005KT 23/17 A2998 RMK A01 T02250172  RH  072%=      5-min Rain = 0
KWE1 222343Z 08006KT 22/17 A2998 RMK A01 T02240172  RH  072%=      5-min Rain = 0
KWE1 222344Z 08005KT 22/17 A2998 RMK A01 T02240172  RH  072%=      5-min Rain = 0
KWE1 222345Z 08006KT 22/17 A2998 RMK A01 T02240172  RH  073%=      5-min Rain = 0
KWE1 222346Z 08006KT 22/17 A2998 RMK A01 T02240171  RH  072%=      5-min Rain = 0
KWE1 222347Z 08006KT 22/17 A2998 RMK A01 T02240172  RH  072%=      5-min Rain = 0
KWE1 222348Z 08006KT 22/17 A2998 RMK A01 T02240171  RH  072%=      5-min Rain = 0
KWE1 222349Z 09007KT 22/17 A2998 RMK A01 T02230170  RH  072%=      5-min Rain = 0
KWE1 222350Z 09006KT 22/17 A2998 RMK A01 T02230170  RH  072%=      5-min Rain = 0
KWE1 222351Z 08007KT 22/17 A2998 RMK A01 T02240171  RH  072%=      5-min Rain = 0
KWE1 222352Z 09007KT 22/17 A2998 RMK A01 T02230171  RH  072%=      5-min Rain = 0
KWE1 222353Z 09007KT 22/17 A2998 RMK A01 T02230171  RH  072%=      5-min Rain = 0
KWE1 222354Z 08006KT 22/17 A2998 RMK A01 T02230170  RH  072%=      5-min Rain = 0
KWE1 222355Z 08007KT 22/17 A2997 RMK A01 T02230170  RH  072%=      5-min Rain = 0
KWE1 222356Z 08006KT 22/17 A2997 RMK A01 T02230170  RH  072%=      5-min Rain = 0
KWE1 222357Z 08006KT 22/17 A2997 RMK A01 T02230171  RH  072%=      5-min Rain = 0
KWE1 222358Z 09006KT 22/17 A2997 RMK A01 T02230170  RH  072%=      5-min Rain = 0
KWE1 222359Z 09006KT 22/17 A2997 RMK A01 T02230169  RH  072%=      5-min Rain = 0
KWE1 230000Z 09006KT 22/17 A2998 RMK A01 T02220168  RH  071%=      5-min Rain = 0
KWE1 230001Z 10006KT 22/17 A2998 RMK A01 T02220168  RH  071%=      5-min Rain = 0
KWE1 230002Z 10006KT 22/17 A2998 RMK A01 T02230169  RH  072%=      5-min Rain = 0
KWE1 230003Z 10006KT 22/17 A2998 RMK A01 T02230169  RH  071%=      5-min Rain = 0
KWE1 230004Z 10005KT 22/17 A2998 RMK A01 T02230169  RH  071%=      5-min Rain = 0
KWE1 230005Z 10006KT 22/17 A2998 RMK A01 T02230169  RH  071%=      5-min Rain = 0
KWE1 230006Z 09005KT 22/17 A2998 RMK A01 T02230169  RH  072%=      5-min Rain = 0
KWE1 230007Z 09005KT 22/17 A2998 RMK A01 T02220170  RH  072%=      5-min Rain = 0
KWE1 230008Z 10005KT 22/17 A2998 RMK A01 T02220171  RH  073%=      5-min Rain = 0
KWE1 230009Z 10006KT 22/17 A2998 RMK A01 T02220171  RH  073%=      5-min Rain = 0
KWE1 230010Z 10006KT 22/17 A2997 RMK A01 T02210171  RH  073%=      5-min Rain = 0
KWE1 230011Z 10005KT 22/17 A2997 RMK A01 T02210171  RH  073%=      5-min Rain = 0
KWE1 230012Z 10005KT 22/17 A2997 RMK A01 T02210172  RH  073%=      5-min Rain = 0
KWE1 230013Z 09007KT 22/17 A2997 RMK A01 T02210172  RH  073%=      5-min Rain = 0
KWE1 230014Z 10005KT 22/17 A2997 RMK A01 T02210171  RH  073%=      5-min Rain = 0
KWE1 230015Z 10005KT 22/17 A2997 RMK A01 T02210172  RH  073%=      5-min Rain = 0
KWE1 230016Z 09006KT 22/17 A2997 RMK A01 T02210171  RH  073%=      5-min Rain = 0
KWE1 230017Z 09005KT 22/17 A2997 RMK A01 T02210171  RH  073%=      5-min Rain = 0
KWE1 230018Z 09007KT 22/17 A2997 RMK A01 T02210171  RH  073%=      5-min Rain = 0
KWE1 230019Z 09007KT 22/17 A2997 RMK A01 T02210171  RH  073%=      5-min Rain = 0
KWE1 230020Z 10007KT 22/17 A2997 RMK A01 T02210170  RH  073%=      5-min Rain = 0
KWE1 230021Z 10007KT 22/17 A2997 RMK A01 T02210170  RH  073%=      5-min Rain = 0
KWE1 230022Z 10006KT 22/17 A2997 RMK A01 T02210170  RH  073%=      5-min Rain = 0
KWE1 230023Z 10007KT 22/17 A2997 RMK A01 T02210171  RH  073%=      5-min Rain = 0
KWE1 230024Z 10006KT 22/17 A2997 RMK A01 T02210171  RH  073%=      5-min Rain = 0
KWE1 230025Z 10006KT 22/17 A2997 RMK A01 T02210171  RH  073%=      5-min Rain = 0
KWE1 230026Z 10006KT 22/17 A2996 RMK A01 T02200171  RH  074%=      5-min Rain = 0
KWE1 230027Z 10006KT 22/17 A2996 RMK A01 T02200171  RH  074%=      5-min Rain = 0
KWE1 230028Z 10006KT 22/17 A2996 RMK A01 T02190171  RH  074%=      5-min Rain = 0
KWE1 230029Z 10007KT 22/17 A2996 RMK A01 T02200171  RH  074%=      5-min Rain = 0
KWE1 230030Z 10007KT 22/17 A2996 RMK A01 T02190171  RH  074%=      5-min Rain = 0
KWE1 230031Z 10006KT 22/17 A2996 RMK A01 T02190171  RH  074%=      5-min Rain = 0
KWE1 230032Z 10006KT 22/17 A2996 RMK A01 T02190171  RH  074%=      5-min Rain = 0
KWE1 230033Z 10007KT 22/17 A2996 RMK A01 T02190171  RH  074%=      5-min Rain = 0
KWE1 230034Z 10006KT 22/17 A2996 RMK A01 T02180170  RH  074%=      5-min Rain = 0
KWE1 230035Z 10007KT 22/17 A2996 RMK A01 T02180171  RH  075%=      5-min Rain = 0
KWE1 230036Z 10006KT 22/17 A2996 RMK A01 T02180171  RH  075%=      5-min Rain = 0
KWE1 230037Z 10006KT 22/17 A2996 RMK A01 T02180171  RH  075%=      5-min Rain = 0
KWE1 230038Z 10006KT 22/17 A2996 RMK A01 T02180172  RH  075%=      5-min Rain = 0
KWE1 230039Z 10007KT 22/17 A2996 RMK A01 T02180171  RH  075%=      5-min Rain = 0
KWE1 230040Z 10007KT 22/17 A2996 RMK A01 T02180172  RH  075%=      5-min Rain = 0
KWE1 230041Z 10007KT 22/17 A2996 RMK A01 T02170171  RH  075%=      5-min Rain = 0
KWE1 230042Z 10007KT 22/17 A2996 RMK A01 T02170172  RH  075%=      5-min Rain = 0
KWE1 230043Z 10007KT 22/17 A2996 RMK A01 T02170172  RH  076%=      5-min Rain = 0
KWE1 230044Z 10007KT 22/17 A2996 RMK A01 T02160172  RH  076%=      5-min Rain = 0
KWE1 230045Z 10007KT 22/17 A2996 RMK A01 T02160172  RH  076%=      5-min Rain = 0
KWE1 230046Z 10007KT 22/17 A2996 RMK A01 T02160171  RH  076%=      5-min Rain = 0
KWE1 230047Z 11007KT 22/17 A2996 RMK A01 T02160172  RH  076%=      5-min Rain = 0
KWE1 230048Z 10008KT 22/17 A2996 RMK A01 T02160171  RH  076%=      5-min Rain = 0
KWE1 230049Z 10008KT 22/17 A2996 RMK A01 T02160172  RH  076%=      5-min Rain = 0
KWE1 230050Z 10008KT 22/17 A2996 RMK A01 T02160171  RH  076%=      5-min Rain = 0
KWE1 230051Z 10008KT 22/17 A2996 RMK A01 T02160171  RH  076%=      5-min Rain = 0
KWE1 230052Z 10008KT 22/17 A2996 RMK A01 T02160171  RH  076%=      5-min Rain = 0
KWE1 230053Z 10008KT 22/17 A2997 RMK A01 T02160171  RH  076%=      5-min Rain = 0
KWE1 230054Z 10008KT 22/17 A2996 RMK A01 T02160171  RH  075%=      5-min Rain = 0
KWE1 230055Z 10008KT 22/17 A2996 RMK A01 T02160171  RH  075%=      5-min Rain = 0
KWE1 230056Z 11008KT 22/17 A2996 RMK A01 T02160170  RH  075%=      5-min Rain = 0
KWE1 230057Z 11007KT 22/17 A2996 RMK A01 T02160169  RH  075%=      5-min Rain = 0
KWE1 230058Z 11008KT 22/17 A2996 RMK A01 T02160169  RH  075%=      5-min Rain = 0
KWE1 230059Z 11008KT 22/17 A2996 RMK A01 T02160168  RH  074%=      5-min Rain = 0
KWE1 230100Z 11008KT 22/17 A2996 RMK A01 T02160168  RH  074%=      5-min Rain = 0
KWE1 230101Z 11007KT 22/17 A2996 RMK A01 T02170168  RH  074%=      5-min Rain = 0
KWE1 230102Z 11008KT 22/17 A2996 RMK A01 T02170168  RH  074%=      5-min Rain = 0
KWE1 230103Z 10007KT 22/17 A2997 RMK A01 T02170168  RH  074%=      5-min Rain = 0
KWE1 230104Z 10008KT 22/17 A2997 RMK A01 T02170168  RH  074%=      5-min Rain = 0
KWE1 230105Z 10008KT 22/17 A2997 RMK A01 T02170168  RH  074%=      5-min Rain = 0
KWE1 230106Z 10007KT 22/17 A2997 RMK A01 T02170168  RH  074%=      5-min Rain = 0
KWE1 230107Z 11008KT 22/17 A2997 RMK A01 T02170169  RH  074%=      5-min Rain = 0
KWE1 230108Z 10008KT 22/17 A2997 RMK A01 T02160168  RH  074%=      5-min Rain = 0
KWE1 230109Z 10006KT 22/17 A2997 RMK A01 T02160168  RH  074%=      5-min Rain = 0
KWE1 230110Z 10009KT 22/17 A2997 RMK A01 T02160167  RH  074%=      5-min Rain = 0
KWE1 230111Z 10007KT 22/17 A2997 RMK A01 T02160167  RH  073%=      5-min Rain = 0
KWE1 230112Z 10008KT 22/17 A2997 RMK A01 T02170167  RH  074%=      5-min Rain = 0
KWE1 230113Z 10008KT 22/17 A2997 RMK A01 T02170166  RH  073%=      5-min Rain = 0
KWE1 230114Z 09008KT 22/17 A2997 RMK A01 T02170166  RH  073%=      5-min Rain = 0
KWE1 230115Z 10009KT 22/17 A2997 RMK A01 T02170167  RH  073%=      5-min Rain = 0
KWE1 230116Z 10009KT 22/17 A2997 RMK A01 T02170168  RH  073%=      5-min Rain = 0
KWE1 230117Z 10009KT 22/17 A2997 RMK A01 T02170167  RH  073%=      5-min Rain = 0
KWE1 230118Z 10009KT 22/17 A2997 RMK A01 T02170168  RH  073%=      5-min Rain = 0
KWE1 230119Z 10008KT 22/17 A2997 RMK A01 T02160167  RH  073%=      5-min Rain = 0
KWE1 230120Z 11009KT 22/17 A2997 RMK A01 T02160168  RH  074%=      5-min Rain = 0
KWE1 230121Z 10008KT 22/17 A2997 RMK A01 T02160167  RH  073%=      5-min Rain = 0
KWE1 230122Z 10010KT 22/17 A2997 RMK A01 T02160167  RH  074%=      5-min Rain = 0
KWE1 230123Z 11009KT 22/17 A2997 RMK A01 T02160166  RH  073%=      5-min Rain = 0
KWE1 230124Z 10010KT 22/17 A2997 RMK A01 T02160166  RH  073%=      5-min Rain = 0
KWE1 230125Z 10010KT 22/17 A2997 RMK A01 T02160166  RH  073%=      5-min Rain = 0
KWE1 230126Z 10011KT 22/17 A2997 RMK A01 T02160167  RH  074%=      5-min Rain = 0
KWE1 230127Z 10009KT 22/17 A2997 RMK A01 T02160167  RH  074%=      5-min Rain = 0
KWE1 230128Z 10010KT 22/17 A2997 RMK A01 T02150167  RH  074%=      5-min Rain = 0
KWE1 230129Z 10010KT 22/17 A2997 RMK A01 T02150167  RH  074%=      5-min Rain = 0
KWE1 230130Z 10010KT 22/17 A2997 RMK A01 T02150167  RH  074%=      5-min Rain = 0
KWE1 230131Z 10010KT 22/17 A2996 RMK A01 T02150167  RH  074%=      5-min Rain = 0
KWE1 230132Z 10009KT 22/17 A2997 RMK A01 T02150167  RH  074%=      5-min Rain = 0
KWE1 230133Z 10009KT 21/17 A2997 RMK A01 T02140167  RH  074%=      5-min Rain = 0
KWE1 230134Z 10010KT 21/17 A2997 RMK A01 T02140167  RH  074%=      5-min Rain = 0
KWE1 230135Z 11010KT 21/17 A2997 RMK A01 T02140167  RH  074%=      5-min Rain = 0
KWE1 230136Z 10011KT 21/17 A2997 RMK A01 T02140167  RH  074%=      5-min Rain = 0
KWE1 230137Z 10010KT 21/17 A2997 RMK A01 T02140167  RH  075%=      5-min Rain = 0
KWE1 230138Z 10009KT 21/17 A2997 RMK A01 T02140167  RH  075%=      5-min Rain = 0
KWE1 230139Z 10009KT 21/17 A2997 RMK A01 T02130167  RH  075%=      5-min Rain = 0
KWE1 230140Z 10009KT 21/17 A2997 RMK A01 T02130167  RH  075%=      5-min Rain = 0
KWE1 230141Z 10009KT 21/17 A2997 RMK A01 T02130166  RH  075%=      5-min Rain = 0
KWE1 230142Z 11008KT 21/17 A2997 RMK A01 T02130166  RH  074%=      5-min Rain = 0
KWE1 230143Z 10009KT 21/17 A2997 RMK A01 T02130166  RH  074%=      5-min Rain = 0
KWE1 230144Z 10008KT 21/17 A2997 RMK A01 T02130166  RH  075%=      5-min Rain = 0
KWE1 230145Z 10009KT 21/17 A2997 RMK A01 T02130167  RH  075%=      5-min Rain = 0
KWE1 230146Z 10008KT 21/17 A2997 RMK A01 T02130166  RH  075%=      5-min Rain = 0
KWE1 230147Z 11009KT 21/17 A2997 RMK A01 T02120167  RH  075%=      5-min Rain = 0
KWE1 230148Z 11009KT 21/17 A2997 RMK A01 T02120167  RH  076%=      5-min Rain = 0
KWE1 230149Z 10009KT 21/17 A2997 RMK A01 T02110167  RH  075%=      5-min Rain = 0
KWE1 230150Z 10009KT 21/17 A2997 RMK A01 T02120166  RH  075%=      5-min Rain = 0
KWE1 230151Z 10010KT 21/17 A2997 RMK A01 T02110166  RH  075%=      5-min Rain = 0
KWE1 230152Z 10009KT 21/17 A2997 RMK A01 T02120167  RH  075%=      5-min Rain = 0
KWE1 230153Z 10009KT 21/17 A2997 RMK A01 T02120167  RH  076%=      5-min Rain = 0
KWE1 230154Z 09009KT 21/17 A2997 RMK A01 T02110167  RH  076%=      5-min Rain = 0
KWE1 230155Z 09009KT 21/17 A2997 RMK A01 T02110167  RH  076%=      5-min Rain = 0
KWE1 230156Z 10008KT 21/17 A2997 RMK A01 T02110167  RH  076%=      5-min Rain = 0
KWE1 230157Z 09010KT 21/17 A2997 RMK A01 T02110168  RH  076%=      5-min Rain = 0
KWE1 230158Z 09009KT 21/17 A2997 RMK A01 T02110167  RH  076%=      5-min Rain = 0
KWE1 230159Z 09008KT 21/17 A2997 RMK A01 T02110167  RH  076%=      5-min Rain = 0
KWE1 230200Z 09008KT 21/17 A2997 RMK A01 T02100167  RH  076%=      5-min Rain = 0
KWE1 230201Z 09007KT 21/17 A2997 RMK A01 T02100167  RH  076%=      5-min Rain = 0
KWE1 230202Z 10007KT 21/17 A2998 RMK A01 T02100167  RH  076%=      5-min Rain = 0
KWE1 230203Z 10008KT 21/17 A2998 RMK A01 T02100167  RH  077%=      5-min Rain = 0
KWE1 230204Z 09007KT 21/17 A2998 RMK A01 T02100167  RH  077%=      5-min Rain = 0
KWE1 230205Z 10008KT 21/17 A2998 RMK A01 T02100168  RH  077%=      5-min Rain = 0
KWE1 230206Z 10008KT 21/17 A2998 RMK A01 T02090167  RH  077%=      5-min Rain = 0
KWE1 230207Z 10007KT 21/17 A2998 RMK A01 T02090168  RH  077%=      5-min Rain = 0
KWE1 230208Z 09007KT 21/17 A2998 RMK A01 T02090168  RH  077%=      5-min Rain = 0
KWE1 230209Z 09008KT 21/17 A2998 RMK A01 T02090167  RH  077%=      5-min Rain = 0
KWE1 230210Z 09007KT 21/17 A2998 RMK A01 T02090168  RH  077%=      5-min Rain = 0
KWE1 230211Z 09008KT 21/17 A2998 RMK A01 T02090168  RH  077%=      5-min Rain = 0
KWE1 230212Z 09008KT 21/17 A2998 RMK A01 T02080167  RH  077%=      5-min Rain = 0
KWE1 230213Z 09009KT 21/17 A2998 RMK A01 T02080166  RH  077%=      5-min Rain = 0
KWE1 230214Z 09009KT 21/17 A2998 RMK A01 T02090166  RH  077%=      5-min Rain = 0
KWE1 230215Z 09010KT 21/17 A2998 RMK A01 T02090166  RH  076%=      5-min Rain = 0
KWE1 230216Z 09008KT 21/17 A2998 RMK A01 T02090166  RH  076%=      5-min Rain = 0
KWE1 230217Z 09008KT 21/17 A2998 RMK A01 T02090166  RH  076%=      5-min Rain = 0
KWE1 230218Z 09008KT 21/17 A2998 RMK A01 T02090166  RH  076%=      5-min Rain = 0
KWE1 230219Z 09008KT 21/17 A2998 RMK A01 T02100166  RH  076%=      5-min Rain = 0
KWE1 230220Z 09007KT 21/17 A2998 RMK A01 T02100166  RH  076%=      5-min Rain = 0
KWE1 230221Z 09007KT 21/17 A2998 RMK A01 T02090166  RH  076%=      5-min Rain = 0
KWE1 230222Z 09007KT 21/17 A2998 RMK A01 T02090166  RH  076%=      5-min Rain = 0
KWE1 230223Z 10007KT 21/17 A2998 RMK A01 T02090166  RH  076%=      5-min Rain = 0
KWE1 230224Z 09007KT 21/17 A2998 RMK A01 T02090166  RH  076%=      5-min Rain = 0
KWE1 230225Z 09008KT 21/17 A2998 RMK A01 T02090166  RH  076%=      5-min Rain = 0
KWE1 230226Z 09008KT 21/17 A2998 RMK A01 T02090165  RH  076%=      5-min Rain = 0
KWE1 230227Z 09007KT 21/17 A2998 RMK A01 T02090165  RH  076%=      5-min Rain = 0
KWE1 230228Z 09006KT 21/17 A2998 RMK A01 T02090165  RH  076%=      5-min Rain = 0
KWE1 230229Z 09006KT 21/17 A2998 RMK A01 T02100166  RH  076%=      5-min Rain = 0
KWE1 230230Z 10008KT 21/17 A2998 RMK A01 T02090166  RH  076%=      5-min Rain = 0
KWE1 230231Z 10007KT 21/17 A2998 RMK A01 T02090165  RH  076%=      5-min Rain = 0
KWE1 230232Z 10006KT 21/17 A2998 RMK A01 T02090166  RH  076%=      5-min Rain = 0
KWE1 230233Z 10006KT 21/17 A2998 RMK A01 T02090166  RH  076%=      5-min Rain = 0
KWE1 230234Z 09007KT 21/17 A2998 RMK A01 T02090167  RH  077%=      5-min Rain = 0
KWE1 230235Z 09007KT 21/17 A2998 RMK A01 T02090166  RH  076%=      5-min Rain = 0
KWE1 230236Z 10007KT 21/17 A2998 RMK A01 T02090167  RH  077%=      5-min Rain = 0
KWE1 230237Z 10006KT 21/17 A2998 RMK A01 T02090167  RH  077%=      5-min Rain = 0
KWE1 230238Z 10006KT 21/17 A2998 RMK A01 T02080167  RH  077%=      5-min Rain = 0
KWE1 230239Z 10006KT 21/17 A2998 RMK A01 T02080167  RH  077%=      5-min Rain = 0
KWE1 230240Z 11006KT 21/17 A2998 RMK A01 T02080167  RH  077%=      5-min Rain = 0
KWE1 230241Z 10006KT 21/17 A2998 RMK A01 T02080167  RH  077%=      5-min Rain = 0
KWE1 230242Z 11006KT 21/17 A2998 RMK A01 T02080167  RH  078%=      5-min Rain = 0
KWE1 230243Z 10007KT 21/17 A2998 RMK A01 T02070167  RH  078%=      5-min Rain = 0
KWE1 230244Z 11007KT 21/17 A2998 RMK A01 T02070167  RH  078%=      5-min Rain = 0
KWE1 230245Z 11006KT 21/17 A2998 RMK A01 T02060167  RH  078%=      5-min Rain = 0
KWE1 230246Z 10006KT 21/17 A2998 RMK A01 T02060168  RH  079%=      5-min Rain = 0
KWE1 230247Z 10007KT 21/17 A2998 RMK A01 T02060167  RH  079%=      5-min Rain = 0
KWE1 230248Z 10007KT 21/17 A2998 RMK A01 T02050167  RH  079%=      5-min Rain = 0
KWE1 230249Z 10007KT 21/17 A2998 RMK A01 T02050167  RH  079%=      5-min Rain = 0
KWE1 230250Z 10008KT 21/17 A2998 RMK A01 T02050167  RH  079%=      5-min Rain = 0
KWE1 230251Z 10007KT 21/17 A2998 RMK A01 T02050166  RH  078%=      5-min Rain = 0
KWE1 230252Z 11007KT 21/17 A2998 RMK A01 T02050166  RH  078%=      5-min Rain = 0
KWE1 230253Z 11007KT 21/17 A2999 RMK A01 T02050166  RH  078%=      5-min Rain = 0
KWE1 230254Z 10006KT 21/17 A2999 RMK A01 T02060166  RH  078%=      5-min Rain = 0
KWE1 230255Z 11006KT 21/17 A2999 RMK A01 T02060167  RH  078%=      5-min Rain = 0
KWE1 230256Z 11007KT 21/17 A2999 RMK A01 T02060166  RH  078%=      5-min Rain = 0
KWE1 230257Z 10007KT 21/17 A2999 RMK A01 T02060166  RH  078%=      5-min Rain = 0
KWE1 230258Z 11007KT 21/17 A2999 RMK A01 T02060165  RH  078%=      5-min Rain = 0
KWE1 230259Z 11007KT 21/17 A2999 RMK A01 T02060165  RH  077%=      5-min Rain = 0
KWE1 230300Z 11007KT 21/17 A2999 RMK A01 T02060165  RH  077%=      5-min Rain = 0
KWE1 230301Z 10008KT 21/17 A2999 RMK A01 T02060165  RH  077%=      5-min Rain = 0
KWE1 230302Z 11007KT 21/17 A2999 RMK A01 T02070165  RH  077%=      5-min Rain = 0
KWE1 230303Z 10006KT 21/17 A2999 RMK A01 T02070165  RH  077%=      5-min Rain = 0
KWE1 230304Z 11007KT 21/17 A2999 RMK A01 T02070165  RH  077%=      5-min Rain = 0
KWE1 230305Z 11007KT 21/17 A2999 RMK A01 T02070165  RH  077%=      5-min Rain = 0
KWE1 230306Z 11008KT 21/17 A2999 RMK A01 T02070165  RH  077%=      5-min Rain = 0
KWE1 230307Z 11007KT 21/17 A2999 RMK A01 T02070165  RH  077%=      5-min Rain = 0
KWE1 230308Z 10008KT 21/17 A2999 RMK A01 T02070165  RH  077%=      5-min Rain = 0
KWE1 230309Z 10007KT 21/17 A2999 RMK A01 T02060165  RH  077%=      5-min Rain = 0
KWE1 230310Z 11006KT 21/17 A2999 RMK A01 T02060165  RH  077%=      5-min Rain = 0
KWE1 230311Z 11007KT 21/17 A2999 RMK A01 T02060165  RH  078%=      5-min Rain = 0
KWE1 230312Z 11007KT 21/17 A2999 RMK A01 T02060165  RH  078%=      5-min Rain = 0
KWE1 230313Z 10007KT 21/17 A2999 RMK A01 T02050165  RH  078%=      5-min Rain = 0
KWE1 230314Z 10007KT 21/17 A2999 RMK A01 T02050165  RH  078%=      5-min Rain = 0
KWE1 230315Z 10007KT 21/17 A2999 RMK A01 T02050165  RH  078%=      5-min Rain = 0
KWE1 230316Z 10006KT 21/17 A2999 RMK A01 T02050165  RH  078%=      5-min Rain = 0
KWE1 230317Z 11006KT 21/17 A2999 RMK A01 T02050165  RH  078%=      5-min Rain = 0
KWE1 230318Z 11006KT 21/17 A2999 RMK A01 T02050165  RH  078%=      5-min Rain = 0
KWE1 230319Z 11005KT 21/17 A2999 RMK A01 T02050165  RH  078%=      5-min Rain = 0
KWE1 230320Z 10007KT 21/17 A2999 RMK A01 T02050166  RH  078%=      5-min Rain = 0
KWE1 230321Z 10006KT 20/17 A2999 RMK A01 T02040165  RH  078%=      5-min Rain = 0
KWE1 230322Z 11006KT 20/17 A2998 RMK A01 T02040165  RH  078%=      5-min Rain = 0
KWE1 230323Z 11006KT 20/17 A2998 RMK A01 T02040165  RH  078%=      5-min Rain = 0
KWE1 230324Z 11006KT 20/17 A2998 RMK A01 T02040165  RH  078%=      5-min Rain = 0
KWE1 230325Z 11004KT 20/16 A2998 RMK A01 T02040164  RH  078%=      5-min Rain = 0
KWE1 230326Z 11006KT 20/17 A2998 RMK A01 T02040165  RH  078%=      5-min Rain = 0
KWE1 230327Z 11005KT 20/16 A2998 RMK A01 T02040164  RH  078%=      5-min Rain = 0
KWE1 230328Z 12007KT 20/16 A2998 RMK A01 T02040164  RH  078%=      5-min Rain = 0
KWE1 230329Z 11005KT 20/16 A2998 RMK A01 T02040163  RH  077%=      5-min Rain = 0
KWE1 230330Z 11006KT 21/16 A2998 RMK A01 T02050163  RH  077%=      5-min Rain = 0
KWE1 230331Z 11006KT 21/16 A2998 RMK A01 T02050163  RH  077%=      5-min Rain = 0
KWE1 230332Z 11006KT 21/16 A2998 RMK A01 T02050164  RH  077%=      5-min Rain = 0
KWE1 230333Z 12005KT 21/16 A2999 RMK A01 T02050164  RH  077%=      5-min Rain = 0
KWE1 230334Z 11005KT 21/16 A2999 RMK A01 T02050164  RH  077%=      5-min Rain = 0
KWE1 230335Z 12005KT 21/16 A2999 RMK A01 T02050164  RH  077%=      5-min Rain = 0
KWE1 230336Z 11006KT 21/16 A2999 RMK A01 T02050164  RH  077%=      5-min Rain = 0
KWE1 230337Z 12005KT 21/16 A2999 RMK A01 T02050164  RH  077%=      5-min Rain = 0
KWE1 230338Z 12004KT 21/16 A2999 RMK A01 T02050164  RH  077%=      5-min Rain = 0
KWE1 230339Z 12005KT 21/16 A2999 RMK A01 T02050164  RH  077%=      5-min Rain = 0
KWE1 230340Z 12007KT 21/16 A2999 RMK A01 T02050164  RH  077%=      5-min Rain = 0
KWE1 230341Z 11007KT 21/16 A2999 RMK A01 T02050163  RH  077%=      5-min Rain = 0
KWE1 230342Z 11007KT 21/16 A2999 RMK A01 T02050163  RH  077%=      5-min Rain = 0
KWE1 230343Z 12007KT 21/16 A2999 RMK A01 T02050163  RH  077%=      5-min Rain = 0
KWE1 230344Z 12007KT 21/16 A2999 RMK A01 T02060163  RH  076%=      5-min Rain = 0
KWE1 230345Z 12006KT 21/16 A2999 RMK A01 T02060162  RH  076%=      5-min Rain = 0
KWE1 230346Z 12007KT 21/16 A2999 RMK A01 T02060163  RH  076%=      5-min Rain = 0
KWE1 230347Z 12008KT 21/16 A2999 RMK A01 T02060162  RH  076%=      5-min Rain = 0
KWE1 230348Z 12008KT 21/16 A2999 RMK A01 T02060162  RH  076%=      5-min Rain = 0
KWE1 230349Z 12008KT 21/16 A2999 RMK A01 T02060161  RH  075%=      5-min Rain = 0
KWE1 230350Z 13010KT 21/16 A2999 RMK A01 T02070161  RH  075%=      5-min Rain = 0
KWE1 230351Z 12010KT 21/16 A2999 RMK A01 T02080160  RH  074%=      5-min Rain = 0
KWE1 230352Z 12010KT 21/16 A2998 RMK A01 T02090161  RH  074%=      5-min Rain = 0
KWE1 230353Z 12008KT 21/16 A2998 RMK A01 T02090161  RH  074%=      5-min Rain = 0
KWE1 230354Z 13010KT 21/16 A2998 RMK A01 T02090161  RH  074%=      5-min Rain = 0
KWE1 230355Z 12010KT 21/16 A2998 RMK A01 T02090161  RH  074%=      5-min Rain = 0
KWE1 230356Z 13010KT 21/16 A2998 RMK A01 T02090161  RH  074%=      5-min Rain = 0
KWE1 230357Z 13011KT 21/16 A2998 RMK A01 T02090161  RH  074%=      5-min Rain = 0
KWE1 230358Z 12010KT 21/16 A2998 RMK A01 T02090160  RH  074%=      5-min Rain = 0
KWE1 230359Z 12009KT 21/16 A2998 RMK A01 T02090161  RH  074%=      5-min Rain = 0
KWE1 230400Z 13007KT 21/16 A2998 RMK A01 T02090161  RH  074%=      5-min Rain = 0
KWE1 230401Z 12009KT 21/16 A2998 RMK A01 T02080162  RH  075%=      5-min Rain = 0
KWE1 230402Z 12008KT 21/16 A2998 RMK A01 T02080161  RH  075%=      5-min Rain = 0
KWE1 230403Z 12009KT 21/16 A2998 RMK A01 T02070161  RH  075%=      5-min Rain = 0
KWE1 230404Z 13008KT 21/16 A2998 RMK A01 T02070161  RH  075%=      5-min Rain = 0
KWE1 230405Z 12008KT 21/16 A2998 RMK A01 T02070161  RH  075%=      5-min Rain = 0
KWE1 230406Z 12008KT 21/16 A2998 RMK A01 T02070162  RH  075%=      5-min Rain = 0
KWE1 230407Z 13008KT 21/16 A2998 RMK A01 T02060162  RH  076%=      5-min Rain = 0
KWE1 230408Z 12008KT 21/16 A2998 RMK A01 T02060162  RH  076%=      5-min Rain = 0
KWE1 230409Z 13007KT 21/16 A2998 RMK A01 T02060161  RH  076%=      5-min Rain = 0
KWE1 230410Z 13008KT 21/16 A2998 RMK A01 T02050162  RH  076%=      5-min Rain = 0
KWE1 230411Z 13009KT 21/16 A2998 RMK A01 T02050161  RH  076%=      5-min Rain = 0
KWE1 230412Z 13008KT 21/16 A2998 RMK A01 T02050161  RH  076%=      5-min Rain = 0
KWE1 230413Z 12008KT 21/16 A2998 RMK A01 T02050162  RH  076%=      5-min Rain = 0
KWE1 230414Z 12009KT 21/16 A2998 RMK A01 T02050162  RH  076%=      5-min Rain = 0
KWE1 230415Z 13009KT 21/16 A2998 RMK A01 T02050162  RH  076%=      5-min Rain = 0
KWE1 230416Z 12008KT 21/16 A2998 RMK A01 T02050162  RH  076%=      5-min Rain = 0
KWE1 230417Z 13008KT 21/16 A2998 RMK A01 T02050162  RH  076%=      5-min Rain = 0
KWE1 230418Z 13008KT 20/16 A2998 RMK A01 T02040162  RH  076%=      5-min Rain = 0
KWE1 230419Z 12009KT 20/16 A2998 RMK A01 T02040162  RH  077%=      5-min Rain = 0
KWE1 230420Z 12008KT 20/16 A2998 RMK A01 T02040162  RH  077%=      5-min Rain = 0
KWE1 230421Z 12008KT 20/16 A2998 RMK A01 T02040161  RH  077%=      5-min Rain = 0
KWE1 230422Z 13009KT 20/16 A2997 RMK A01 T02040162  RH  077%=      5-min Rain = 0
KWE1 230423Z 12008KT 20/16 A2997 RMK A01 T02040161  RH  076%=      5-min Rain = 0
KWE1 230424Z 12009KT 20/16 A2997 RMK A01 T02040161  RH  076%=      5-min Rain = 0
KWE1 230425Z 13008KT 20/16 A2997 RMK A01 T02040161  RH  076%=      5-min Rain = 0
KWE1 230426Z 12008KT 20/16 A2997 RMK A01 T02040160  RH  076%=      5-min Rain = 0
KWE1 230427Z 13008KT 20/16 A2997 RMK A01 T02040161  RH  076%=      5-min Rain = 0
KWE1 230428Z 13008KT 20/16 A2997 RMK A01 T02040161  RH  076%=      5-min Rain = 0
KWE1 230429Z 13007KT 20/16 A2997 RMK A01 T02040161  RH  076%=      5-min Rain = 0
KWE1 230430Z 13008KT 20/16 A2997 RMK A01 T02040161  RH  076%=      5-min Rain = 0
KWE1 230431Z 13008KT 20/16 A2997 RMK A01 T02040160  RH  076%=      5-min Rain = 0
KWE1 230432Z 13007KT 20/16 A2997 RMK A01 T02040160  RH  076%=      5-min Rain = 0
KWE1 230433Z 13008KT 20/16 A2997 RMK A01 T02040160  RH  076%=      5-min Rain = 0
KWE1 230434Z 13007KT 20/16 A2998 RMK A01 T02040160  RH  076%=      5-min Rain = 0
KWE1 230435Z 13009KT 20/16 A2998 RMK A01 T02040160  RH  076%=      5-min Rain = 0
KWE1 230436Z 13009KT 20/16 A2998 RMK A01 T02040160  RH  076%=      5-min Rain = 0
KWE1 230437Z 13008KT 20/16 A2998 RMK A01 T02040160  RH  076%=      5-min Rain = 0
KWE1 230438Z 13007KT 20/16 A2998 RMK A01 T02040161  RH  076%=      5-min Rain = 0
KWE1 230439Z 13007KT 20/16 A2997 RMK A01 T02030160  RH  076%=      5-min Rain = 0
KWE1 230440Z 13007KT 20/16 A2997 RMK A01 T02030160  RH  076%=      5-min Rain = 0
KWE1 230441Z 14008KT 20/16 A2997 RMK A01 T02030160  RH  076%=      5-min Rain = 0
KWE1 230442Z 14008KT 20/16 A2998 RMK A01 T02030160  RH  077%=      5-min Rain = 0
KWE1 230443Z 15008KT 20/16 A2997 RMK A01 T02020160  RH  077%=      5-min Rain = 0
KWE1 230444Z 14008KT 20/16 A2997 RMK A01 T02020159  RH  076%=      5-min Rain = 0
KWE1 230445Z 14010KT 20/16 A2997 RMK A01 T02020159  RH  076%=      5-min Rain = 0
KWE1 230446Z 14011KT 20/16 A2997 RMK A01 T02020159  RH  076%=      5-min Rain = 0
KWE1 230447Z 14010KT 20/16 A2997 RMK A01 T02030159  RH  076%=      5-min Rain = 0
KWE1 230448Z 15011G16KT 20/16 A2997 RMK A01 T02030158  RH  075%=      5-min Rain = 0
KWE1 230449Z 14010KT 20/16 A2997 RMK A01 T02040158  RH  075%=      5-min Rain = 0
KWE1 230450Z 15011KT 20/16 A2997 RMK A01 T02040158  RH  075%=      5-min Rain = 0
KWE1 230451Z 14012KT 20/16 A2997 RMK A01 T02040157  RH  074%=      5-min Rain = 0
KWE1 230452Z 15012KT 21/16 A2997 RMK A01 T02050158  RH  074%=      5-min Rain = 0
KWE1 230453Z 15011KT 21/16 A2997 RMK A01 T02050157  RH  074%=      5-min Rain = 0
KWE1 230454Z 15011KT 21/16 A2997 RMK A01 T02050157  RH  074%=      5-min Rain = 0
KWE1 230455Z 15012KT 21/16 A2997 RMK A01 T02050158  RH  074%=      5-min Rain = 0
KWE1 230456Z 15013G18KT 21/16 A2997 RMK A01 T02050157  RH  074%=      5-min Rain = 0
KWE1 230457Z 15012KT 21/16 A2997 RMK A01 T02050157  RH  074%=      5-min Rain = 0
KWE1 230458Z 14011KT 21/16 A2997 RMK A01 T02060157  RH  074%=      5-min Rain = 0
KWE1 230459Z 15011KT 21/16 A2997 RMK A01 T02060158  RH  074%=      5-min Rain = 0

Page generated in 0.1197 seconds.